Time,TemperatureF,DewpointF,PressureIn,WindDirection,WindDirectionDegrees,WindSpeedMPH,WindSpeedGustMPH,Humidity,HourlyPrecipIn,Conditions,Clouds,dailyrainin,SolarRadiationWatts/m^2,SoftwareType,DateUTC
2013-09-30 00:03:00,72.4,66.9,29.73,SE,126,6.9,6.9,83,0.00,RA,,0.00,0.0,WeatherDisplay:10.37,2013-09-29 22:03:00,
2013-09-30 00:04:00,72.4,66.9,29.73,SE,142,6.0,6.0,83,0.00,RA,,0.00,0.0,WeatherDisplay:10.37,2013-09-29 22:04:00,
2013-09-30 00:08:00,72.4,67.3,29.73,SE,132,7.0,7.0,84,0.00,RA,,0.00,0.0,WeatherDisplay:10.37,2013-09-29 22:08:00,
2013-09-30 00:09:00,72.3,67.2,29.73,SE,132,8.1,8.1,84,0.00,RA,,0.00,0.0,WeatherDisplay:10.37,2013-09-29 22:09:00,
2013-09-30 00:10:00,72.3,67.2,29.73,SE,138,8.1,8.1,84,0.00,BKN,,0.00,0.0,WeatherDisplay:10.37,2013-09-29 22:10:00,
2013-09-30 00:13:00,72.3,67.2,29.72,SE,138,8.1,8.1,84,0.00,BKN,,0.00,0.0,WeatherDisplay:10.37,2013-09-29 22:13:00,
2013-09-30 00:14:00,72.3,67.2,29.72,SE,124,4.6,4.6,84,0.00,BKN,,0.00,0.0,WeatherDisplay:10.37,2013-09-29 22:14:00,
2013-09-30 00:15:00,72.3,67.2,29.72,SE,132,9.2,9.2,84,0.00,BKN,,0.00,0.0,WeatherDisplay:10.37,2013-09-29 22:15:00,
2013-09-30 00:18:00,72.2,67.1,29.72,SE,134,9.0,9.0,84,0.00,BKN,,0.00,0.0,WeatherDisplay:10.37,2013-09-29 22:18:00,
2013-09-30 00:19:00,72.2,67.1,29.72,SE,145,9.2,9.2,84,0.00,BKN,,0.00,0.0,WeatherDisplay:10.37,2013-09-29 22:19:00,
2013-09-30 00:20:00,72.2,67.1,29.72,SE,126,9.2,9.2,84,0.00,BKN,,0.00,0.0,WeatherDisplay:10.37,2013-09-29 22:20:00,
2013-09-30 00:24:00,72.2,67.4,29.71,SE,129,11.0,11.0,85,0.00,BKN,,0.00,0.0,WeatherDisplay:10.37,2013-09-29 22:24:00,
2013-09-30 00:26:00,72.2,67.4,29.71,SE,136,10.4,10.4,85,0.00,BKN,,0.00,0.0,WeatherDisplay:10.37,2013-09-29 22:26:00,
2013-09-30 00:29:00,72.2,67.4,29.71,SE,128,10.4,10.4,85,0.00,BKN,,0.00,0.0,WeatherDisplay:10.37,2013-09-29 22:29:00,
2013-09-30 00:30:00,72.2,67.4,29.71,SSE,151,10.4,10.4,85,0.00,BKN,,0.00,0.0,WeatherDisplay:10.37,2013-09-29 22:30:00,
2013-09-30 00:31:00,72.2,67.4,29.71,SSE,166,4.6,4.6,85,0.00,BKN,,0.00,0.0,WeatherDisplay:10.37,2013-09-29 22:31:00,
2013-09-30 00:34:00,72.2,67.4,29.72,SE,139,3.5,3.5,85,0.00,BKN,,0.00,0.0,WeatherDisplay:10.37,2013-09-29 22:34:00,
2013-09-30 00:35:00,72.2,67.4,29.72,SE,145,3.5,3.5,85,0.00,BKN,,0.00,0.0,WeatherDisplay:10.37,2013-09-29 22:35:00,
2013-09-30 00:38:00,72.2,67.4,29.73,South,188,0.0,0.0,85,0.00,BKN,,0.00,0.0,WeatherDisplay:10.37,2013-09-29 22:38:00,
2013-09-30 00:39:00,72.2,67.4,29.73,SE,136,4.6,4.6,85,0.00,BKN,,0.00,0.0,WeatherDisplay:10.37,2013-09-29 22:39:00,
2013-09-30 00:40:00,72.2,67.4,29.73,South,175,5.0,5.0,85,0.00,BKN,,0.00,0.0,WeatherDisplay:10.37,2013-09-29 22:40:00,
2013-09-30 00:41:00,72.2,67.4,29.73,SSW,192,4.6,4.6,85,0.00,BKN,,0.00,0.0,WeatherDisplay:10.37,2013-09-29 22:41:00,
2013-09-30 00:43:00,72.2,67.4,29.72,SE,146,0.0,0.0,85,0.00,BKN,,0.00,0.0,WeatherDisplay:10.37,2013-09-29 22:43:00,
2013-09-30 00:44:00,72.2,67.4,29.73,South,186,1.2,0.0,85,0.00,BKN,,0.00,0.0,WeatherDisplay:10.37,2013-09-29 22:44:00,
2013-09-30 00:45:00,72.2,67.4,29.73,SE,132,1.2,0.0,85,0.00,BKN,,0.00,0.0,WeatherDisplay:10.37,2013-09-29 22:45:00,
2013-09-30 00:47:00,72.2,67.4,29.73,SSW,197,3.0,3.0,85,0.00,BKN,,0.00,0.0,WeatherDisplay:10.37,2013-09-29 22:47:00,
2013-09-30 00:49:00,72.2,67.4,29.73,SSW,205,0.0,0.0,85,0.00,BKN,,0.00,0.0,WeatherDisplay:10.37,2013-09-29 22:49:00,
2013-09-30 00:50:00,72.2,67.4,29.73,South,179,0.0,0.0,85,0.00,BKN,,0.00,0.0,WeatherDisplay:10.37,2013-09-29 22:50:00,
2013-09-30 00:52:00,72.2,67.4,29.73,SSW,197,4.6,4.6,85,0.00,BKN,,0.00,0.0,WeatherDisplay:10.37,2013-09-29 22:52:00,
2013-09-30 00:54:00,72.1,67.3,29.72,South,182,2.3,2.3,85,0.00,BKN,,0.00,0.0,WeatherDisplay:10.37,2013-09-29 22:54:00,
2013-09-30 00:55:00,72.1,67.3,29.73,South,190,3.5,3.5,85,0.00,BKN,,0.00,0.0,WeatherDisplay:10.37,2013-09-29 22:55:00,
2013-09-30 00:57:00,72.1,67.3,29.72,South,178,1.2,1.2,85,0.00,BKN,,0.00,0.0,WeatherDisplay:10.37,2013-09-29 22:57:00,
2013-09-30 00:59:00,72.1,67.3,29.72,SE,130,1.0,1.0,85,0.00,BKN,,0.00,0.0,WeatherDisplay:10.37,2013-09-29 22:59:00,
2013-09-30 01:00:00,72.1,67.3,29.72,SSE,147,1.2,1.2,85,0.00,BKN,,0.00,0.0,WeatherDisplay:10.37,2013-09-29 23:00:00,
2013-09-30 01:02:00,72.1,67.3,29.72,SE,135,1.2,1.2,85,0.00,BKN,,0.00,0.0,WeatherDisplay:10.37,2013-09-29 23:02:00,
2013-09-30 01:04:00,72.0,67.2,29.71,South,184,2.0,2.0,85,0.00,BKN,,0.00,0.0,WeatherDisplay:10.37,2013-09-29 23:04:00,
2013-09-30 01:05:00,72.1,67.3,29.71,South,175,5.8,5.8,85,0.00,BKN,,0.00,0.0,WeatherDisplay:10.37,2013-09-29 23:05:00,
2013-09-30 01:07:00,72.0,67.2,29.71,SSE,153,4.6,4.6,85,0.00,BKN,,0.00,0.0,WeatherDisplay:10.37,2013-09-29 23:07:00,
2013-09-30 01:09:00,71.9,67.1,29.71,South,175,8.1,8.1,85,0.00,BKN,,0.00,0.0,WeatherDisplay:10.37,2013-09-29 23:09:00,
2013-09-30 01:10:00,71.9,67.1,29.71,SE,138,6.9,6.9,85,0.00,BKN,,0.00,0.0,WeatherDisplay:10.37,2013-09-29 23:10:00,
2013-09-30 01:11:00,71.8,67.0,29.71,SE,134,6.9,6.9,85,0.00,BKN,,0.00,0.0,WeatherDisplay:10.37,2013-09-29 23:11:00,
2013-09-30 01:12:00,71.8,67.0,29.71,SE,146,4.6,4.6,85,0.00,BKN,,0.00,0.0,WeatherDisplay:10.37,2013-09-29 23:12:00,
2013-09-30 01:14:00,71.7,66.9,29.71,SSE,151,5.8,5.8,85,0.00,BKN,,0.00,0.0,WeatherDisplay:10.37,2013-09-29 23:14:00,
2013-09-30 01:15:00,71.7,66.9,29.71,SE,142,4.6,4.6,85,0.00,BKN,,0.00,0.0,WeatherDisplay:10.37,2013-09-29 23:15:00,
2013-09-30 01:16:00,71.7,66.9,29.71,South,190,8.1,8.1,85,0.00,BKN,,0.00,0.0,WeatherDisplay:10.37,2013-09-29 23:16:00,
2013-09-30 01:17:00,71.6,66.8,29.71,SE,142,9.2,9.2,85,0.00,BKN,,0.00,0.0,WeatherDisplay:10.37,2013-09-29 23:17:00,
2013-09-30 01:21:00,71.6,66.8,29.71,SSE,160,9.2,9.2,85,0.00,BKN,,0.00,0.0,WeatherDisplay:10.37,2013-09-29 23:21:00,
2013-09-30 01:22:00,71.6,66.8,29.71,SE,137,9.2,9.2,85,0.00,BKN,,0.00,0.0,WeatherDisplay:10.37,2013-09-29 23:22:00,
2013-09-30 01:26:00,71.5,66.8,29.71,SSE,153,5.8,5.8,85,0.00,BKN,,0.00,0.0,WeatherDisplay:10.37,2013-09-29 23:26:00,
2013-09-30 01:27:00,71.5,66.8,29.71,SE,142,6.9,6.9,85,0.00,BKN,,0.00,0.0,WeatherDisplay:10.37,2013-09-29 23:27:00,
2013-09-30 01:31:00,71.5,66.8,29.71,South,171,5.8,5.8,85,0.00,BKN,,0.00,0.0,WeatherDisplay:10.37,2013-09-29 23:31:00,
2013-09-30 01:32:00,71.5,66.8,29.71,SSE,163,7.0,7.0,85,0.00,BKN,,0.00,0.0,WeatherDisplay:10.37,2013-09-29 23:32:00,
2013-09-30 01:36:00,71.5,66.8,29.70,SE,136,4.6,4.6,85,0.00,BKN,,0.00,0.0,WeatherDisplay:10.37,2013-09-29 23:36:00,
2013-09-30 01:37:00,71.5,66.8,29.70,SE,144,6.9,6.9,85,0.00,BKN,,0.00,0.0,WeatherDisplay:10.37,2013-09-29 23:37:00,
2013-09-30 01:38:00,71.5,66.8,29.70,SE,139,6.0,6.0,85,0.00,BKN,,0.00,0.0,WeatherDisplay:10.37,2013-09-29 23:38:00,
2013-09-30 01:42:00,71.5,66.8,29.70,SSE,153,8.1,8.1,85,0.00,BKN,,0.00,0.0,WeatherDisplay:10.37,2013-09-29 23:42:00,
2013-09-30 01:43:00,71.5,66.8,29.70,SE,144,8.1,8.1,85,0.00,BKN,,0.00,0.0,WeatherDisplay:10.37,2013-09-29 23:43:00,
2013-09-30 01:47:00,71.5,66.8,29.70,SSE,150,6.0,6.0,85,0.00,BKN,,0.00,0.0,WeatherDisplay:10.37,2013-09-29 23:47:00,
2013-09-30 01:48:00,71.5,66.8,29.70,SE,142,8.1,8.1,85,0.00,BKN,,0.00,0.0,WeatherDisplay:10.37,2013-09-29 23:48:00,
2013-09-30 01:49:00,71.5,66.8,29.69,SE,138,10.0,10.0,85,0.00,BKN,,0.00,0.0,WeatherDisplay:10.37,2013-09-29 23:49:00,
2013-09-30 01:52:00,71.5,66.8,29.69,SE,134,6.9,6.9,85,0.00,BKN,,0.00,0.0,WeatherDisplay:10.37,2013-09-29 23:52:00,
2013-09-30 01:53:00,71.5,66.8,29.69,SSE,166,6.0,6.0,85,0.00,BKN,,0.00,0.0,WeatherDisplay:10.37,2013-09-29 23:53:00,
2013-09-30 01:54:00,71.5,66.8,29.69,SE,136,5.8,5.8,85,0.00,BKN,,0.00,0.0,WeatherDisplay:10.37,2013-09-29 23:54:00,
2013-09-30 01:57:00,71.5,66.8,29.69,SSE,147,3.5,3.5,85,0.00,BKN,,0.00,0.0,WeatherDisplay:10.37,2013-09-29 23:57:00,
2013-09-30 01:58:00,71.5,66.8,29.69,South,169,6.9,6.9,85,0.00,BKN,,0.00,0.0,WeatherDisplay:10.37,2013-09-29 23:58:00,
2013-09-30 01:59:00,71.5,66.8,29.69,SSE,148,6.9,6.9,85,0.00,BKN,,0.00,0.0,WeatherDisplay:10.37,2013-09-29 23:59:00,
2013-09-30 02:00:00,71.5,66.8,29.69,South,169,6.9,6.9,85,0.00,BKN,,0.00,0.0,WeatherDisplay:10.37,2013-09-30 00:00:00,
2013-09-30 02:02:00,71.5,66.8,29.69,SSE,157,5.0,5.0,85,0.00,BKN,,0.00,0.0,WeatherDisplay:10.37,2013-09-30 00:02:00,
2013-09-30 02:03:00,71.5,66.8,29.69,SE,130,3.5,3.6,85,0.00,BKN,,0.00,0.0,WeatherDisplay:10.37,2013-09-30 00:03:00,
2013-09-30 02:04:00,71.5,66.8,29.68,SE,126,3.5,3.5,85,0.00,BKN,,0.00,0.0,WeatherDisplay:10.37,2013-09-30 00:04:00,
2013-09-30 02:05:00,71.5,66.8,29.69,ESE,112,3.5,3.5,85,0.00,BKN,,0.00,0.0,WeatherDisplay:10.37,2013-09-30 00:05:00,
2013-09-30 02:08:00,71.4,66.7,29.69,SSE,147,4.6,4.6,85,0.00,BKN,,0.00,0.0,WeatherDisplay:10.37,2013-09-30 00:08:00,
2013-09-30 02:09:00,71.4,66.7,29.68,SSE,149,4.6,4.6,85,0.00,BKN,,0.00,0.0,WeatherDisplay:10.37,2013-09-30 00:09:00,
2013-09-30 02:11:00,71.3,66.2,29.68,ESE,105,5.8,5.8,84,0.00,BKN,,0.00,0.0,WeatherDisplay:10.37,2013-09-30 00:11:00,
2013-09-30 02:13:00,71.2,66.1,29.68,SE,145,3.5,3.5,84,0.00,BKN,,0.00,0.0,WeatherDisplay:10.37,2013-09-30 00:13:00,
2013-09-30 02:14:00,71.2,66.1,29.68,SSE,156,6.0,6.0,84,0.00,BKN,,0.00,0.0,WeatherDisplay:10.37,2013-09-30 00:14:00,
2013-09-30 02:17:00,71.2,66.1,29.68,SSE,148,1.2,1.2,84,0.00,BKN,,0.00,0.0,WeatherDisplay:10.37,2013-09-30 00:17:00,
2013-09-30 02:18:00,71.2,66.1,29.68,SSE,152,1.2,0.0,84,0.00,BKN,,0.00,0.0,WeatherDisplay:10.37,2013-09-30 00:18:00,
2013-09-30 02:19:00,71.1,66.0,29.68,ESE,122,4.6,4.6,84,0.00,BKN,,0.00,0.0,WeatherDisplay:10.37,2013-09-30 00:19:00,
2013-09-30 02:23:00,71.1,66.0,29.68,SE,143,8.1,8.1,84,0.00,BKN,,0.00,0.0,WeatherDisplay:10.37,2013-09-30 00:23:00,
2013-09-30 02:24:00,71.1,66.0,29.68,SE,144,4.6,4.6,84,0.00,BKN,,0.00,0.0,WeatherDisplay:10.37,2013-09-30 00:24:00,
2013-09-30 02:28:00,71.1,66.0,29.68,South,181,9.2,9.2,84,0.00,BKN,,0.00,0.0,WeatherDisplay:10.37,2013-09-30 00:28:00,
2013-09-30 02:29:00,71.2,66.1,29.68,SE,133,9.2,9.2,84,0.00,BKN,,0.00,0.0,WeatherDisplay:10.37,2013-09-30 00:29:00,
2013-09-30 02:34:00,71.2,66.1,29.68,SE,135,6.9,6.9,84,0.00,BKN,,0.00,0.0,WeatherDisplay:10.37,2013-09-30 00:34:00,
2013-09-30 02:35:00,71.2,66.1,29.68,SSE,152,8.1,8.1,84,0.00,BKN,,0.00,0.0,WeatherDisplay:10.37,2013-09-30 00:35:00,
2013-09-30 02:39:00,71.2,66.1,29.68,SE,143,5.0,5.7,84,0.00,BKN,,0.00,0.0,WeatherDisplay:10.37,2013-09-30 00:39:00,
2013-09-30 02:40:00,71.2,66.1,29.68,SSE,159,8.1,8.1,84,0.00,BKN,,0.00,0.0,WeatherDisplay:10.37,2013-09-30 00:40:00,
2013-09-30 02:41:00,71.2,66.1,29.68,SE,128,5.8,5.8,84,0.00,BKN,,0.00,0.0,WeatherDisplay:10.37,2013-09-30 00:41:00,
2013-09-30 02:44:00,71.4,66.3,29.68,SSE,159,9.2,9.2,84,0.00,BKN,,0.00,0.0,WeatherDisplay:10.37,2013-09-30 00:44:00,
2013-09-30 02:45:00,71.4,66.3,29.68,SSE,159,5.8,5.8,84,0.00,BKN,,0.00,0.0,WeatherDisplay:10.37,2013-09-30 00:45:00,
2013-09-30 02:46:00,71.4,66.3,29.68,SE,138,3.0,3.0,84,0.00,BKN,,0.00,0.0,WeatherDisplay:10.37,2013-09-30 00:46:00,
2013-09-30 02:49:00,71.5,66.4,29.68,SSE,165,3.5,3.5,84,0.00,BKN,,0.00,0.0,WeatherDisplay:10.37,2013-09-30 00:49:00,
2013-09-30 02:50:00,71.5,66.4,29.68,SSE,148,5.0,5.0,84,0.00,BKN,,0.00,0.0,WeatherDisplay:10.37,2013-09-30 00:50:00,
2013-09-30 02:51:00,71.5,66.4,29.68,SE,137,4.6,4.6,84,0.00,BKN,,0.00,0.0,WeatherDisplay:10.37,2013-09-30 00:51:00,
2013-09-30 02:54:00,71.6,66.5,29.67,SE,126,6.0,6.0,84,0.00,BKN,,0.00,0.0,WeatherDisplay:10.37,2013-09-30 00:54:00,
2013-09-30 02:55:00,71.6,66.5,29.67,SE,124,6.9,6.9,84,0.00,BKN,,0.00,0.0,WeatherDisplay:10.37,2013-09-30 00:55:00,
2013-09-30 02:56:00,71.6,66.5,29.67,SE,132,6.9,6.9,84,0.00,BKN,,0.00,0.0,WeatherDisplay:10.37,2013-09-30 00:56:00,
2013-09-30 02:57:00,71.6,66.5,29.67,SSE,159,4.6,4.6,84,0.00,BKN,,0.00,0.0,WeatherDisplay:10.37,2013-09-30 00:57:00,
2013-09-30 02:59:00,71.6,66.5,29.67,SE,130,6.9,6.9,84,0.00,BKN,,0.00,0.0,WeatherDisplay:10.37,2013-09-30 00:59:00,
2013-09-30 03:00:00,71.6,66.5,29.67,SE,132,3.5,3.5,84,0.00,BKN,,0.00,0.0,WeatherDisplay:10.37,2013-09-30 01:00:00,
2013-09-30 03:01:00,71.7,66.6,29.67,ESE,117,4.6,4.6,84,0.00,BKN,,0.00,0.0,WeatherDisplay:10.37,2013-09-30 01:01:00,
2013-09-30 03:02:00,71.7,66.6,29.67,SE,128,3.5,3.5,84,0.00,BKN,,0.00,0.0,WeatherDisplay:10.37,2013-09-30 01:02:00,
2013-09-30 03:05:00,71.7,66.9,29.67,ESE,118,3.0,3.0,85,0.00,BKN,,0.00,0.0,WeatherDisplay:10.37,2013-09-30 01:05:00,
2013-09-30 03:06:00,71.7,66.9,29.67,ESE,117,3.5,3.5,85,0.00,BKN,,0.00,0.0,WeatherDisplay:10.37,2013-09-30 01:06:00,
2013-09-30 03:08:00,71.7,66.9,29.66,ESE,121,3.5,3.7,85,0.00,BKN,,0.00,0.0,WeatherDisplay:10.37,2013-09-30 01:08:00,
2013-09-30 03:10:00,71.7,66.9,29.66,ESE,116,1.2,0.0,85,0.00,BKN,,0.00,0.0,WeatherDisplay:10.37,2013-09-30 01:10:00,
2013-09-30 03:11:00,71.7,66.9,29.66,SE,129,0.0,0.0,85,0.00,BKN,,0.00,0.0,WeatherDisplay:10.37,2013-09-30 01:11:00,
2013-09-30 03:12:00,71.7,66.9,29.66,SE,141,0.0,0.0,85,0.00,BKN,,0.00,0.0,WeatherDisplay:10.37,2013-09-30 01:12:00,
2013-09-30 03:13:00,71.7,66.9,29.66,SSE,150,4.0,4.8,85,0.00,BKN,,0.00,0.0,WeatherDisplay:10.37,2013-09-30 01:13:00,
2013-09-30 03:15:00,71.7,66.9,29.66,SSE,149,3.5,3.5,85,0.00,BKN,,0.00,0.0,WeatherDisplay:10.37,2013-09-30 01:15:00,
2013-09-30 03:16:00,71.7,66.9,29.66,SE,140,3.5,3.5,85,0.00,BKN,,0.00,0.0,WeatherDisplay:10.37,2013-09-30 01:16:00,
2013-09-30 03:17:00,71.7,66.9,29.66,SE,138,4.6,4.6,85,0.00,BKN,,0.00,0.0,WeatherDisplay:10.37,2013-09-30 01:17:00,
2013-09-30 03:19:00,71.7,66.9,29.65,South,169,8.0,8.0,85,0.00,BKN,,0.00,0.0,WeatherDisplay:10.37,2013-09-30 01:19:00,
2013-09-30 03:20:00,71.8,67.0,29.65,SSE,150,8.1,8.1,85,0.00,BKN,,0.00,0.0,WeatherDisplay:10.37,2013-09-30 01:20:00,
2013-09-30 03:21:00,71.8,67.0,29.65,SSE,158,8.0,8.0,85,0.00,BKN,,0.00,0.0,WeatherDisplay:10.37,2013-09-30 01:21:00,
2013-09-30 03:22:00,71.8,67.0,29.65,SE,128,9.2,9.2,85,0.00,BKN,,0.00,0.0,WeatherDisplay:10.37,2013-09-30 01:22:00,
2013-09-30 03:24:00,71.8,67.0,29.65,SE,137,10.0,10.0,85,0.00,BKN,,0.00,0.0,WeatherDisplay:10.37,2013-09-30 01:24:00,
2013-09-30 03:25:00,71.8,67.0,29.65,SE,138,10.4,10.4,85,0.00,BKN,,0.00,0.0,WeatherDisplay:10.37,2013-09-30 01:25:00,
2013-09-30 03:27:00,71.8,67.0,29.65,SE,145,6.9,6.9,85,0.00,BKN,,0.00,0.0,WeatherDisplay:10.37,2013-09-30 01:27:00,
2013-09-30 03:28:00,71.8,67.0,29.65,SE,143,6.9,6.9,85,0.00,BKN,,0.00,0.0,WeatherDisplay:10.37,2013-09-30 01:28:00,
2013-09-30 03:30:00,71.8,67.0,29.65,SE,139,8.1,8.1,85,0.00,BKN,,0.00,0.0,WeatherDisplay:10.37,2013-09-30 01:30:00,
2013-09-30 03:32:00,71.8,67.0,29.65,SSE,159,10.4,10.4,85,0.00,BKN,,0.00,0.0,WeatherDisplay:10.37,2013-09-30 01:32:00,
2013-09-30 03:33:00,71.8,67.0,29.65,SSE,158,11.5,11.5,85,0.00,BKN,,0.00,0.0,WeatherDisplay:10.37,2013-09-30 01:33:00,
2013-09-30 03:36:00,71.8,67.0,29.64,SSE,159,11.5,11.5,85,0.00,BKN,,0.00,0.0,WeatherDisplay:10.37,2013-09-30 01:36:00,
2013-09-30 03:37:00,71.8,67.0,29.64,South,180,6.9,6.9,85,0.00,BKN,,0.00,0.0,WeatherDisplay:10.37,2013-09-30 01:37:00,
2013-09-30 03:38:00,71.8,67.0,29.64,South,180,11.0,11.0,85,0.00,BKN,,0.00,0.0,WeatherDisplay:10.37,2013-09-30 01:38:00,
2013-09-30 03:41:00,71.8,67.0,29.64,SSE,163,6.9,6.9,85,0.00,BKN,,0.00,0.0,WeatherDisplay:10.37,2013-09-30 01:41:00,
2013-09-30 03:42:00,71.8,67.0,29.64,SSE,155,12.7,12.7,85,0.00,BKN,,0.00,0.0,WeatherDisplay:10.37,2013-09-30 01:42:00,
2013-09-30 03:43:00,71.8,67.0,29.64,South,169,12.7,12.7,85,0.00,BKN,,0.00,0.0,WeatherDisplay:10.37,2013-09-30 01:43:00,
2013-09-30 03:46:00,71.9,67.1,29.64,SSE,158,14.0,14.0,85,0.00,BKN,,0.00,0.0,WeatherDisplay:10.37,2013-09-30 01:46:00,
2013-09-30 03:48:00,71.9,67.1,29.64,South,172,11.5,11.5,85,0.00,BKN,,0.00,0.0,WeatherDisplay:10.37,2013-09-30 01:48:00,
2013-09-30 03:51:00,71.9,67.1,29.64,SE,138,6.9,6.9,85,0.00,BKN,,0.00,0.0,WeatherDisplay:10.37,2013-09-30 01:51:00,
2013-09-30 03:52:00,71.9,67.1,29.64,SE,144,6.9,6.9,85,0.00,BKN,,0.00,0.0,WeatherDisplay:10.37,2013-09-30 01:52:00,
2013-09-30 03:53:00,71.9,67.1,29.64,SSE,150,8.1,8.1,85,0.00,BKN,,0.00,0.0,WeatherDisplay:10.37,2013-09-30 01:53:00,
2013-09-30 03:57:00,72.0,67.2,29.64,SSE,149,10.4,10.4,85,0.00,BKN,,0.00,0.0,WeatherDisplay:10.37,2013-09-30 01:57:00,
2013-09-30 03:58:00,72.0,67.2,29.64,South,175,15.0,15.0,85,0.00,BKN,,0.00,0.0,WeatherDisplay:10.37,2013-09-30 01:58:00,
2013-09-30 04:03:00,72.1,67.0,29.63,SE,138,13.8,13.8,84,0.00,BKN,,0.00,0.0,WeatherDisplay:10.37,2013-09-30 02:03:00,
2013-09-30 04:08:00,72.1,67.0,29.63,SE,142,8.1,8.1,84,0.00,BKN,,0.00,0.0,WeatherDisplay:10.37,2013-09-30 02:08:00,
2013-09-30 04:13:00,72.1,67.0,29.64,South,172,11.5,11.5,84,0.01,RA,,0.01,0.0,WeatherDisplay:10.37,2013-09-30 02:13:00,
2013-09-30 04:18:00,72.0,66.9,29.62,South,179,9.2,9.2,84,0.01,RA,,0.01,0.0,WeatherDisplay:10.37,2013-09-30 02:18:00,
2013-09-30 04:19:00,72.1,67.0,29.62,SSE,161,11.5,11.5,84,0.02,RA,,0.02,0.0,WeatherDisplay:10.37,2013-09-30 02:19:00,
2013-09-30 04:23:00,72.1,67.3,29.63,SE,138,10.4,10.4,85,0.04,RA,,0.04,0.0,WeatherDisplay:10.37,2013-09-30 02:23:00,
2013-09-30 04:24:00,72.1,67.3,29.63,South,180,8.1,8.1,85,0.04,RA,,0.04,0.0,WeatherDisplay:10.37,2013-09-30 02:24:00,
2013-09-30 04:25:00,72.1,67.3,29.63,SSW,211,11.5,11.5,85,0.04,RA,,0.04,0.0,WeatherDisplay:10.37,2013-09-30 02:25:00,
2013-09-30 04:28:00,72.2,67.4,29.62,SSW,201,11.5,11.5,85,0.04,RA,,0.04,0.0,WeatherDisplay:10.37,2013-09-30 02:28:00,
2013-09-30 04:29:00,72.2,67.4,29.62,South,190,11.5,11.5,85,0.04,RA,,0.04,0.0,WeatherDisplay:10.37,2013-09-30 02:29:00,
2013-09-30 04:30:00,72.2,67.8,29.63,SSW,199,11.5,11.5,86,0.04,RA,,0.04,0.0,WeatherDisplay:10.37,2013-09-30 02:30:00,
2013-09-30 04:34:00,72.3,67.9,29.62,SW,218,12.7,12.7,86,0.04,BKN,,0.04,0.0,WeatherDisplay:10.37,2013-09-30 02:34:00,
2013-09-30 04:35:00,72.3,67.9,29.62,SSW,198,11.5,11.5,86,0.04,BKN,,0.04,0.0,WeatherDisplay:10.37,2013-09-30 02:35:00,
2013-09-30 04:39:00,72.3,67.9,29.61,SSW,192,11.5,11.5,86,0.04,BKN,,0.04,0.0,WeatherDisplay:10.37,2013-09-30 02:39:00,
2013-09-30 04:40:00,72.3,67.9,29.61,South,181,11.5,11.5,86,0.04,BKN,,0.04,0.0,WeatherDisplay:10.37,2013-09-30 02:40:00,
2013-09-30 04:41:00,72.3,67.9,29.62,SSE,165,11.5,11.5,86,0.04,BKN,,0.04,0.0,WeatherDisplay:10.37,2013-09-30 02:41:00,
2013-09-30 04:44:00,72.2,67.8,29.62,SSE,160,11.5,11.5,86,0.05,RA,,0.06,0.0,WeatherDisplay:10.37,2013-09-30 02:44:00,
2013-09-30 04:45:00,72.2,67.8,29.62,SSE,165,11.5,11.5,86,0.06,RA,,0.09,0.0,WeatherDisplay:10.37,2013-09-30 02:45:00,
2013-09-30 04:47:00,72.3,68.2,29.62,SSW,207,11.5,11.5,87,0.12,RA,,0.12,0.0,WeatherDisplay:10.37,2013-09-30 02:47:00,
2013-09-30 04:49:00,72.3,68.2,29.62,South,187,10.4,10.4,87,0.13,RA,,0.13,0.0,WeatherDisplay:10.37,2013-09-30 02:49:00,
2013-09-30 04:50:00,72.3,68.2,29.61,SSE,163,8.1,8.1,87,0.13,RA,,0.13,0.0,WeatherDisplay:10.37,2013-09-30 02:50:00,
2013-09-30 04:52:00,72.3,68.2,29.62,South,186,14.0,14.0,87,0.13,RA,,0.13,0.0,WeatherDisplay:10.37,2013-09-30 02:52:00,
2013-09-30 04:54:00,72.3,68.2,29.62,SSW,199,12.7,12.7,87,0.13,RA,,0.13,0.0,WeatherDisplay:10.37,2013-09-30 02:54:00,
2013-09-30 04:55:00,72.3,68.2,29.62,SE,144,15.0,15.0,87,0.13,RA,,0.13,0.0,WeatherDisplay:10.37,2013-09-30 02:55:00,
2013-09-30 04:56:00,72.3,68.2,29.61,SSE,150,15.0,15.0,87,0.13,RA,,0.13,0.0,WeatherDisplay:10.37,2013-09-30 02:56:00,
2013-09-30 04:57:00,72.1,68.0,29.62,South,171,15.0,15.0,87,0.13,RA,,0.13,0.0,WeatherDisplay:10.37,2013-09-30 02:57:00,
2013-09-30 04:59:00,71.9,67.5,29.61,SSW,192,13.8,13.8,86,0.13,BKN,,0.13,0.0,WeatherDisplay:10.37,2013-09-30 02:59:00,
2013-09-30 05:00:00,71.8,67.7,29.61,South,174,11.5,11.5,87,0.13,BKN,,0.13,0.0,WeatherDisplay:10.37,2013-09-30 03:00:00,
2013-09-30 05:01:00,71.8,67.7,29.61,SW,217,11.5,11.5,87,0.13,BKN,,0.13,0.0,WeatherDisplay:10.37,2013-09-30 03:01:00,
2013-09-30 05:03:00,71.6,67.5,29.61,SSW,207,9.2,9.2,87,0.13,BKN,,0.13,0.0,WeatherDisplay:10.37,2013-09-30 03:03:00,
2013-09-30 05:05:00,71.5,67.4,29.61,SW,230,9.2,9.2,87,0.13,BKN,,0.13,0.0,WeatherDisplay:10.37,2013-09-30 03:05:00,
2013-09-30 05:06:00,71.5,67.4,29.61,SSW,207,9.2,9.2,87,0.13,BKN,,0.13,0.0,WeatherDisplay:10.37,2013-09-30 03:06:00,
2013-09-30 05:08:00,71.5,67.4,29.61,SSW,209,9.2,9.2,87,0.13,BKN,,0.13,0.0,WeatherDisplay:10.37,2013-09-30 03:08:00,
2013-09-30 05:11:00,71.5,67.4,29.61,WSW,248,9.2,9.2,87,0.12,BKN,,0.13,0.0,WeatherDisplay:10.37,2013-09-30 03:11:00,
2013-09-30 05:12:00,71.5,67.4,29.61,SW,218,7.0,7.0,87,0.12,BKN,,0.13,0.0,WeatherDisplay:10.37,2013-09-30 03:12:00,
2013-09-30 05:13:00,71.5,67.4,29.62,SW,223,7.0,7.0,87,0.12,BKN,,0.13,0.0,WeatherDisplay:10.37,2013-09-30 03:13:00,
2013-09-30 05:16:00,71.6,67.5,29.62,South,186,7.0,7.0,87,0.12,BKN,,0.13,0.0,WeatherDisplay:10.37,2013-09-30 03:16:00,
2013-09-30 05:18:00,71.6,67.5,29.61,SSW,198,5.8,5.8,87,0.12,BKN,,0.13,0.0,WeatherDisplay:10.37,2013-09-30 03:18:00,
2013-09-30 05:19:00,71.6,67.5,29.61,SSW,210,6.9,6.9,87,0.11,BKN,,0.13,0.0,WeatherDisplay:10.37,2013-09-30 03:19:00,
2013-09-30 05:21:00,71.6,67.5,29.61,WSW,247,2.3,2.3,87,0.10,BKN,,0.13,0.0,WeatherDisplay:10.37,2013-09-30 03:21:00,
2013-09-30 05:24:00,71.7,67.6,29.62,SW,227,0.0,0.0,87,0.09,BKN,,0.13,0.0,WeatherDisplay:10.37,2013-09-30 03:24:00,
2013-09-30 05:26:00,71.7,67.6,29.63,SW,236,0.0,0.0,87,0.09,BKN,,0.13,0.0,WeatherDisplay:10.37,2013-09-30 03:26:00,
2013-09-30 05:29:00,71.7,67.6,29.64,WNW,284,0.0,0.0,87,0.09,BKN,,0.13,0.0,WeatherDisplay:10.37,2013-09-30 03:29:00,
2013-09-30 05:30:00,71.7,67.6,29.64,West,281,0.0,0.0,87,0.09,BKN,,0.13,0.0,WeatherDisplay:10.37,2013-09-30 03:30:00,
2013-09-30 05:32:00,71.8,67.7,29.62,WNW,283,0.0,0.0,87,0.09,BKN,,0.13,0.0,WeatherDisplay:10.37,2013-09-30 03:32:00,
2013-09-30 05:34:00,71.8,67.7,29.62,WNW,283,0.0,0.0,87,0.09,BKN,,0.13,0.0,WeatherDisplay:10.37,2013-09-30 03:34:00,
2013-09-30 05:35:00,71.8,67.7,29.61,WNW,283,0.0,0.0,87,0.09,BKN,,0.13,0.0,WeatherDisplay:10.37,2013-09-30 03:35:00,
2013-09-30 05:37:00,71.8,67.7,29.62,WNW,283,0.0,0.0,87,0.09,BKN,,0.13,0.0,WeatherDisplay:10.37,2013-09-30 03:37:00,
2013-09-30 05:39:00,71.8,67.7,29.61,WNW,283,0.0,0.0,87,0.09,BKN,,0.13,0.0,WeatherDisplay:10.37,2013-09-30 03:39:00,
2013-09-30 05:40:00,71.8,67.7,29.61,WNW,283,0.0,0.0,87,0.09,BKN,,0.13,0.0,WeatherDisplay:10.37,2013-09-30 03:40:00,
2013-09-30 05:42:00,71.8,67.7,29.61,ESE,110,0.0,0.0,87,0.09,BKN,,0.13,0.0,WeatherDisplay:10.37,2013-09-30 03:42:00,
2013-09-30 05:44:00,71.8,67.7,29.61,West,261,0.0,0.0,87,0.07,BKN,,0.13,0.0,WeatherDisplay:10.37,2013-09-30 03:44:00,
2013-09-30 05:45:00,71.8,67.7,29.62,WSW,247,16.0,16.0,87,0.07,BKN,,0.13,0.0,WeatherDisplay:10.37,2013-09-30 03:45:00,
2013-09-30 05:47:00,71.2,66.5,29.63,NW,316,29.9,29.9,85,0.02,RA,,0.14,0.0,WeatherDisplay:10.37,2013-09-30 03:47:00,
2013-09-30 05:50:00,68.6,63.2,29.63,WNW,297,19.6,19.6,83,0.08,RA,,0.22,0.0,WeatherDisplay:10.37,2013-09-30 03:50:00,
2013-09-30 05:52:00,67.8,62.8,29.63,NNW,332,11.5,11.5,84,0.10,RA,,0.26,0.0,WeatherDisplay:10.37,2013-09-30 03:52:00,
2013-09-30 05:55:00,66.5,61.5,29.63,WNW,283,27.6,27.6,84,0.28,RA,,0.45,0.0,WeatherDisplay:10.37,2013-09-30 03:55:00,
2013-09-30 05:57:00,66.0,61.4,29.64,NW,305,26.5,26.5,85,0.35,RA,,0.49,0.0,WeatherDisplay:10.37,2013-09-30 03:57:00,
2013-09-30 06:01:00,65.8,61.8,29.64,WSW,244,42.6,42.6,87,0.58,RA,,0.71,0.0,WeatherDisplay:10.37,2013-09-30 04:01:00,
2013-09-30 06:03:00,65.5,61.5,29.63,NNW,331,36.8,36.8,87,0.66,RA,,0.83,0.0,WeatherDisplay:10.37,2013-09-30 04:03:00,
2013-09-30 06:06:00,65.3,61.3,29.63,West,279,18.0,18.0,87,0.73,RA,,0.86,0.0,WeatherDisplay:10.37,2013-09-30 04:06:00,
2013-09-30 06:08:00,65.2,61.2,29.62,West,272,19.6,19.6,87,0.74,RA,,0.88,0.0,WeatherDisplay:10.37,2013-09-30 04:08:00,
2013-09-30 06:11:00,65.2,61.6,29.62,NW,311,9.2,9.2,88,0.78,RA,,0.91,0.0,WeatherDisplay:10.37,2013-09-30 04:11:00,
2013-09-30 06:12:00,65.2,61.6,29.62,NW,307,9.2,9.2,88,0.78,RA,,0.91,0.0,WeatherDisplay:10.37,2013-09-30 04:12:00,
2013-09-30 06:13:00,65.1,61.5,29.61,NNW,331,9.2,9.2,88,0.78,RA,,0.91,0.0,WeatherDisplay:10.37,2013-09-30 04:13:00,
2013-09-30 06:16:00,65.1,61.5,29.61,NNW,327,3.0,3.0,88,0.78,RA,,0.91,0.0,WeatherDisplay:10.37,2013-09-30 04:16:00,
2013-09-30 06:17:00,65.1,61.5,29.61,NNW,342,4.6,4.6,88,0.78,RA,,0.91,0.0,WeatherDisplay:10.37,2013-09-30 04:17:00,
2013-09-30 06:18:00,65.1,61.5,29.61,North,5,4.6,4.6,88,0.79,RA,,0.92,0.0,WeatherDisplay:10.37,2013-09-30 04:18:00,
2013-09-30 06:21:00,65.2,61.6,29.60,ENE,71,0.0,0.0,88,0.79,RA,,0.92,0.0,WeatherDisplay:10.37,2013-09-30 04:21:00,
2013-09-30 06:22:00,65.2,61.6,29.60,East,101,0.0,0.0,88,0.79,RA,,0.92,0.0,WeatherDisplay:10.37,2013-09-30 04:22:00,
2013-09-30 06:24:00,65.3,61.7,29.61,East,101,0.0,0.0,88,0.79,RA,,0.92,0.0,WeatherDisplay:10.37,2013-09-30 04:24:00,
2013-09-30 06:26:00,65.3,62.0,29.61,ENE,59,3.5,3.5,89,0.79,RA,,0.92,0.0,WeatherDisplay:10.37,2013-09-30 04:26:00,
2013-09-30 06:27:00,65.3,62.0,29.61,ENE,61,4.0,4.0,89,0.79,RA,,0.92,0.0,WeatherDisplay:10.37,2013-09-30 04:27:00,
2013-09-30 06:29:00,65.3,62.0,29.60,ENE,73,3.5,3.5,89,0.79,BKN,,0.92,0.0,WeatherDisplay:10.37,2013-09-30 04:29:00,
2013-09-30 06:31:00,65.4,62.1,29.61,East,87,3.5,3.5,89,0.79,BKN,,0.92,0.0,WeatherDisplay:10.37,2013-09-30 04:31:00,
2013-09-30 06:32:00,65.5,62.2,29.61,ENE,75,5.0,5.0,89,0.79,BKN,,0.92,0.0,WeatherDisplay:10.37,2013-09-30 04:32:00,
2013-09-30 06:33:00,65.5,62.2,29.61,ENE,78,5.8,5.8,89,0.79,BKN,,0.92,0.0,WeatherDisplay:10.37,2013-09-30 04:33:00,
2013-09-30 06:34:00,65.6,62.3,29.61,East,80,5.8,5.8,89,0.79,BKN,,0.92,0.0,WeatherDisplay:10.37,2013-09-30 04:34:00,
2013-09-30 06:36:00,65.6,62.3,29.62,East,79,9.2,9.2,89,0.79,BKN,,0.92,0.0,WeatherDisplay:10.37,2013-09-30 04:36:00,
2013-09-30 06:38:00,65.6,62.3,29.61,East,87,8.1,8.1,89,0.79,BKN,,0.92,0.0,WeatherDisplay:10.37,2013-09-30 04:38:00,
2013-09-30 06:39:00,65.5,62.2,29.62,East,88,6.9,6.9,89,0.79,BKN,,0.92,0.0,WeatherDisplay:10.37,2013-09-30 04:39:00,
2013-09-30 06:41:00,65.5,62.2,29.62,East,92,6.0,6.0,89,0.79,BKN,,0.92,0.0,WeatherDisplay:10.37,2013-09-30 04:41:00,
2013-09-30 06:43:00,65.4,62.1,29.61,East,84,5.8,5.8,89,0.79,BKN,,0.92,0.0,WeatherDisplay:10.37,2013-09-30 04:43:00,
2013-09-30 06:44:00,65.4,62.1,29.61,East,85,5.8,5.8,89,0.79,BKN,,0.92,0.0,WeatherDisplay:10.37,2013-09-30 04:44:00,
2013-09-30 06:46:00,65.3,62.0,29.60,East,87,5.8,5.8,89,0.79,BKN,,0.92,0.0,WeatherDisplay:10.37,2013-09-30 04:46:00,
2013-09-30 06:48:00,65.3,62.0,29.60,ENE,75,5.8,5.8,89,0.74,BKN,,0.92,0.0,WeatherDisplay:10.37,2013-09-30 04:48:00,
2013-09-30 06:49:00,65.2,61.9,29.60,ENE,69,5.8,5.8,89,0.72,BKN,,0.92,0.0,WeatherDisplay:10.37,2013-09-30 04:49:00,
2013-09-30 06:50:00,65.2,61.9,29.60,ENE,63,5.0,5.0,89,0.71,BKN,,0.92,0.0,WeatherDisplay:10.37,2013-09-30 04:50:00,
2013-09-30 06:51:00,65.2,61.9,29.59,ENE,69,4.6,4.6,89,0.69,BKN,,0.92,0.0,WeatherDisplay:10.37,2013-09-30 04:51:00,
2013-09-30 06:53:00,65.2,61.9,29.60,ENE,78,5.8,5.8,89,0.56,BKN,,0.92,0.0,WeatherDisplay:10.37,2013-09-30 04:53:00,
2013-09-30 06:54:00,65.2,61.9,29.60,East,82,5.8,5.8,89,0.56,BKN,,0.92,0.0,WeatherDisplay:10.37,2013-09-30 04:54:00,
2013-09-30 06:56:00,65.2,61.9,29.60,ENE,67,3.5,3.5,89,0.47,BKN,,0.92,0.0,WeatherDisplay:10.37,2013-09-30 04:56:00,
2013-09-30 06:57:00,65.2,61.9,29.60,ENE,67,3.5,3.5,89,0.44,BKN,,0.92,0.0,WeatherDisplay:10.37,2013-09-30 04:57:00,
2013-09-30 06:59:00,65.2,61.9,29.60,ENE,61,0.0,0.0,89,0.38,BKN,,0.92,0.0,WeatherDisplay:10.37,2013-09-30 04:59:00,
2013-09-30 07:01:00,65.1,61.8,29.60,East,82,5.0,5.0,89,0.21,BKN,,0.92,0.0,WeatherDisplay:10.37,2013-09-30 05:01:00,
2013-09-30 07:02:00,65.1,61.8,29.60,East,86,4.6,4.6,89,0.18,BKN,,0.92,0.0,WeatherDisplay:10.37,2013-09-30 05:02:00,
2013-09-30 07:04:00,65.1,61.8,29.60,East,99,4.6,4.6,89,0.07,BKN,,0.92,0.0,WeatherDisplay:10.37,2013-09-30 05:04:00,
2013-09-30 07:07:00,65.1,61.8,29.61,East,91,3.5,3.5,89,0.06,BKN,,0.92,0.0,WeatherDisplay:10.37,2013-09-30 05:07:00,
2013-09-30 07:08:00,65.1,61.8,29.61,East,91,1.2,0.0,89,0.05,BKN,,0.92,0.0,WeatherDisplay:10.37,2013-09-30 05:08:00,
2013-09-30 07:09:00,65.1,61.8,29.61,East,90,0.0,0.0,89,0.03,OVC,,0.92,0.0,WeatherDisplay:10.37,2013-09-30 05:09:00,
2013-09-30 07:10:00,65.1,61.8,29.61,East,90,0.0,0.0,89,0.02,OVC,,0.92,0.0,WeatherDisplay:10.37,2013-09-30 05:10:00,
2013-09-30 07:12:00,65.1,61.8,29.61,East,90,0.0,0.0,89,0.01,OVC,,0.92,0.0,WeatherDisplay:10.37,2013-09-30 05:12:00,
2013-09-30 07:13:00,65.1,61.8,29.61,East,90,0.0,0.0,89,0.01,OVC,,0.92,0.0,WeatherDisplay:10.37,2013-09-30 05:13:00,
2013-09-30 07:15:00,65.1,61.8,29.61,East,90,0.0,0.0,89,0.01,OVC,,0.92,0.0,WeatherDisplay:10.37,2013-09-30 05:15:00,
2013-09-30 07:17:00,65.0,61.7,29.61,East,91,0.0,0.0,89,0.01,OVC,,0.92,0.0,WeatherDisplay:10.37,2013-09-30 05:17:00,
2013-09-30 07:18:00,65.0,61.7,29.61,East,91,0.0,0.0,89,0.00,OVC,,0.92,5.0,WeatherDisplay:10.37,2013-09-30 05:18:00,
2013-09-30 07:20:00,65.0,61.7,29.61,East,91,0.0,0.0,89,0.00,OVC,,0.92,5.0,WeatherDisplay:10.37,2013-09-30 05:20:00,
2013-09-30 07:21:00,65.0,62.0,29.61,East,91,1.2,1.2,90,0.00,OVC,,0.92,5.0,WeatherDisplay:10.37,2013-09-30 05:21:00,
2013-09-30 07:22:00,65.0,62.0,29.61,East,92,0.0,0.0,90,0.00,OVC,,0.92,7.0,WeatherDisplay:10.37,2013-09-30 05:22:00,
2013-09-30 07:23:00,65.0,62.0,29.61,East,95,0.0,0.1,90,0.00,OVC,,0.92,7.0,WeatherDisplay:10.37,2013-09-30 05:23:00,
2013-09-30 07:24:00,65.0,62.0,29.61,East,97,1.2,0.0,90,0.00,OVC,,0.92,7.0,WeatherDisplay:10.37,2013-09-30 05:24:00,
2013-09-30 07:25:00,65.1,62.1,29.61,ESE,107,0.0,0.0,90,0.00,OVC,,0.92,7.0,WeatherDisplay:10.37,2013-09-30 05:25:00,
2013-09-30 07:27:00,65.1,62.1,29.61,SE,126,3.5,3.5,90,0.00,OVC,,0.92,7.0,WeatherDisplay:10.37,2013-09-30 05:27:00,
2013-09-30 07:28:00,65.1,62.1,29.61,SE,126,3.5,3.5,90,0.00,OVC,,0.92,7.0,WeatherDisplay:10.37,2013-09-30 05:28:00,
2013-09-30 07:29:00,65.1,62.1,29.61,SE,126,2.3,2.3,90,0.00,OVC,,0.92,9.0,WeatherDisplay:10.37,2013-09-30 05:29:00,
2013-09-30 07:30:00,65.1,62.1,29.62,SE,126,2.3,0.0,90,0.00,OVC,,0.92,9.0,WeatherDisplay:10.37,2013-09-30 05:30:00,
2013-09-30 07:32:00,65.1,62.1,29.62,SE,126,0.0,0.0,90,0.00,OVC,,0.92,9.0,WeatherDisplay:10.37,2013-09-30 05:32:00,
2013-09-30 07:34:00,65.1,62.1,29.62,East,95,0.0,0.0,90,0.00,OVC,,0.92,9.0,WeatherDisplay:10.37,2013-09-30 05:34:00,
2013-09-30 07:35:00,65.1,62.1,29.62,East,87,3.0,3.0,90,0.00,OVC,,0.92,9.0,WeatherDisplay:10.37,2013-09-30 05:35:00,
2013-09-30 07:37:00,65.1,62.1,29.62,East,85,4.6,4.6,90,0.00,OVC,,0.92,7.0,WeatherDisplay:10.37,2013-09-30 05:37:00,
2013-09-30 07:38:00,65.1,62.1,29.62,East,90,5.8,5.8,90,0.00,OVC,,0.92,5.0,WeatherDisplay:10.37,2013-09-30 05:38:00,
2013-09-30 07:40:00,65.1,62.1,29.62,East,84,4.6,4.6,90,0.00,OVC,,0.92,0.0,WeatherDisplay:10.37,2013-09-30 05:40:00,
2013-09-30 07:41:00,65.1,62.1,29.63,East,98,0.0,0.0,90,0.00,OVC,,0.92,0.0,WeatherDisplay:10.37,2013-09-30 05:41:00,
2013-09-30 07:42:00,65.1,62.1,29.63,ESE,113,0.0,0.0,90,0.00,OVC,,0.92,0.0,WeatherDisplay:10.37,2013-09-30 05:42:00,
2013-09-30 07:43:00,65.0,62.0,29.63,ESE,113,0.0,0.0,90,0.00,OVC,,0.92,5.0,WeatherDisplay:10.37,2013-09-30 05:43:00,
2013-09-30 07:45:00,65.0,62.0,29.63,ESE,113,0.0,0.0,90,0.00,OVC,,0.92,5.0,WeatherDisplay:10.37,2013-09-30 05:45:00,
2013-09-30 07:46:00,65.0,62.0,29.63,ESE,113,0.0,0.0,90,0.00,OVC,,0.92,5.0,WeatherDisplay:10.37,2013-09-30 05:46:00,
2013-09-30 07:47:00,65.0,62.0,29.63,ESE,113,0.0,0.0,90,0.00,OVC,,0.92,5.0,WeatherDisplay:10.37,2013-09-30 05:47:00,
2013-09-30 07:51:00,64.9,61.9,29.63,ENE,71,0.0,0.0,90,0.00,OVC,,0.92,5.0,WeatherDisplay:10.37,2013-09-30 05:51:00,
2013-09-30 07:52:00,64.9,61.9,29.63,ENE,73,0.0,0.0,90,0.00,OVC,,0.92,5.0,WeatherDisplay:10.37,2013-09-30 05:52:00,
2013-09-30 07:53:00,64.9,61.9,29.63,ENE,73,0.0,0.0,90,0.00,OVC,,0.92,5.0,WeatherDisplay:10.37,2013-09-30 05:53:00,
2013-09-30 07:56:00,64.8,61.8,29.64,SW,222,0.0,0.0,90,0.00,OVC,,0.92,5.0,WeatherDisplay:10.37,2013-09-30 05:56:00,
2013-09-30 07:57:00,64.8,61.8,29.64,SW,223,0.0,0.0,90,0.00,OVC,,0.92,5.0,WeatherDisplay:10.37,2013-09-30 05:57:00,
2013-09-30 07:58:00,64.9,61.9,29.63,WSW,246,0.0,0.0,90,0.00,OVC,,0.92,5.0,WeatherDisplay:10.37,2013-09-30 05:58:00,
2013-09-30 08:01:00,64.9,61.9,29.64,SSW,198,0.0,0.0,90,0.00,OVC,,0.92,5.0,WeatherDisplay:10.37,2013-09-30 06:01:00,
2013-09-30 08:02:00,64.9,61.9,29.64,SSW,198,0.0,0.0,90,0.00,OVC,,0.92,5.0,WeatherDisplay:10.37,2013-09-30 06:02:00,
2013-09-30 08:03:00,64.9,61.9,29.64,SSW,198,0.0,0.0,90,0.00,OVC,,0.92,7.0,WeatherDisplay:10.37,2013-09-30 06:03:00,
2013-09-30 08:07:00,65.0,62.0,29.64,SSW,208,2.3,0.0,90,0.00,OVC,,0.92,9.0,WeatherDisplay:10.37,2013-09-30 06:07:00,
2013-09-30 08:08:00,65.0,62.0,29.64,SSW,208,0.0,0.0,90,0.00,BKN,,0.92,11.0,WeatherDisplay:10.37,2013-09-30 06:08:00,
2013-09-30 08:12:00,65.0,62.0,29.64,SSW,208,0.0,0.0,90,0.00,FEW,,0.92,14.0,WeatherDisplay:10.37,2013-09-30 06:12:00,
2013-09-30 08:13:00,65.0,62.0,29.64,SSW,208,0.0,0.0,90,0.00,FEW,,0.92,18.0,WeatherDisplay:10.37,2013-09-30 06:13:00,
2013-09-30 08:14:00,65.1,62.1,29.64,SSW,208,0.0,0.0,90,0.00,FEW,,0.92,18.0,WeatherDisplay:10.37,2013-09-30 06:14:00,
2013-09-30 08:18:00,65.2,62.5,29.64,SW,222,0.0,0.0,91,0.00,CLR,,0.92,25.0,WeatherDisplay:10.37,2013-09-30 06:18:00,
2013-09-30 08:19:00,65.2,62.5,29.64,NNE,16,0.0,0.0,91,0.00,CLR,,0.92,26.0,WeatherDisplay:10.37,2013-09-30 06:19:00,
2013-09-30 08:20:00,65.2,62.5,29.64,NNE,16,0.0,0.0,91,0.00,CLR,,0.92,26.0,WeatherDisplay:10.37,2013-09-30 06:20:00,
2013-09-30 08:23:00,65.3,62.6,29.64,NNE,16,0.0,0.0,91,0.00,CLR,,0.92,32.0,WeatherDisplay:10.37,2013-09-30 06:23:00,
2013-09-30 08:24:00,65.3,62.6,29.64,NNE,16,0.0,0.0,91,0.00,CLR,,0.92,32.0,WeatherDisplay:10.37,2013-09-30 06:24:00,
2013-09-30 08:25:00,65.3,62.6,29.64,NNE,16,0.0,0.0,91,0.00,CLR,,0.92,33.0,WeatherDisplay:10.37,2013-09-30 06:25:00,
2013-09-30 08:26:00,65.3,62.6,29.63,NNE,16,0.0,0.0,91,0.00,CLR,,0.92,35.0,WeatherDisplay:10.37,2013-09-30 06:26:00,
2013-09-30 08:29:00,65.3,62.6,29.63,NE,35,0.0,0.0,91,0.00,CLR,,0.92,35.0,WeatherDisplay:10.37,2013-09-30 06:29:00,
2013-09-30 08:30:00,65.3,62.6,29.63,NE,35,0.0,0.0,91,0.00,CLR,,0.92,35.0,WeatherDisplay:10.37,2013-09-30 06:30:00,
2013-09-30 08:31:00,65.3,62.6,29.63,NE,35,0.0,0.0,91,0.00,CLR,,0.92,35.0,WeatherDisplay:10.37,2013-09-30 06:31:00,
2013-09-30 08:34:00,65.3,62.6,29.63,NE,35,0.0,0.0,91,0.00,CLR,,0.92,44.0,WeatherDisplay:10.37,2013-09-30 06:34:00,
2013-09-30 08:35:00,65.3,62.6,29.63,NE,38,0.0,0.0,91,0.00,CLR,,0.92,49.0,WeatherDisplay:10.37,2013-09-30 06:35:00,
2013-09-30 08:38:00,65.3,62.6,29.63,NE,38,0.0,0.0,91,0.00,FEW,,0.92,54.0,WeatherDisplay:10.37,2013-09-30 06:38:00,
2013-09-30 08:39:00,65.3,62.6,29.63,NE,38,0.0,0.0,91,0.00,FEW,,0.92,56.0,WeatherDisplay:10.37,2013-09-30 06:39:00,
2013-09-30 08:40:00,65.4,62.7,29.63,NE,38,0.0,0.0,91,0.00,FEW,,0.92,58.0,WeatherDisplay:10.37,2013-09-30 06:40:00,
2013-09-30 08:44:00,65.5,62.8,29.63,NE,38,0.0,0.0,91,0.00,CLR,,0.92,70.0,WeatherDisplay:10.37,2013-09-30 06:44:00,
2013-09-30 08:45:00,65.5,62.8,29.63,NE,38,0.0,0.0,91,0.00,CLR,,0.92,74.0,WeatherDisplay:10.37,2013-09-30 06:45:00,
2013-09-30 08:46:00,65.5,62.8,29.63,NE,38,0.0,0.0,91,0.00,CLR,,0.92,76.0,WeatherDisplay:10.37,2013-09-30 06:46:00,
2013-09-30 08:49:00,65.5,62.8,29.63,NE,38,0.0,0.0,91,0.00,CLR,,0.92,79.0,WeatherDisplay:10.37,2013-09-30 06:49:00,
2013-09-30 08:50:00,65.5,62.8,29.63,NE,38,0.0,0.0,91,0.00,CLR,,0.92,79.0,WeatherDisplay:10.37,2013-09-30 06:50:00,
2013-09-30 08:51:00,65.5,62.8,29.63,NE,38,0.0,0.0,91,0.00,CLR,,0.92,77.0,WeatherDisplay:10.37,2013-09-30 06:51:00,
2013-09-30 08:55:00,65.5,62.8,29.63,NE,38,0.0,0.0,91,0.00,CLR,,0.92,70.0,WeatherDisplay:10.37,2013-09-30 06:55:00,
2013-09-30 08:56:00,65.5,62.8,29.63,NE,38,0.0,0.0,91,0.00,CLR,,0.92,72.0,WeatherDisplay:10.37,2013-09-30 06:56:00,
2013-09-30 09:00:00,65.5,62.8,29.63,NE,38,0.0,0.0,91,0.00,FEW,,0.92,70.0,WeatherDisplay:10.37,2013-09-30 07:00:00,
2013-09-30 09:01:00,65.5,62.8,29.63,NE,38,0.0,0.0,91,0.00,FEW,,0.92,69.0,WeatherDisplay:10.37,2013-09-30 07:01:00,
2013-09-30 09:02:00,65.5,62.8,29.63,NE,38,0.0,0.0,91,0.00,FEW,,0.92,67.0,WeatherDisplay:10.37,2013-09-30 07:02:00,
2013-09-30 09:05:00,65.6,62.9,29.63,NE,38,0.0,0.0,91,0.00,FEW,,0.92,70.0,WeatherDisplay:10.37,2013-09-30 07:05:00,
2013-09-30 09:06:00,65.6,62.9,29.63,NE,38,0.0,0.0,91,0.00,FEW,,0.92,77.0,WeatherDisplay:10.37,2013-09-30 07:06:00,
2013-09-30 09:07:00,65.6,62.9,29.63,NE,36,0.0,0.0,91,0.00,FEW,,0.92,107.0,WeatherDisplay:10.37,2013-09-30 07:07:00,
2013-09-30 09:10:00,65.6,62.9,29.63,NE,38,0.0,0.0,91,0.00,FEW,,0.92,114.0,WeatherDisplay:10.37,2013-09-30 07:10:00,
2013-09-30 09:11:00,65.6,62.9,29.63,NE,38,0.0,0.0,91,0.00,FEW,,0.92,105.0,WeatherDisplay:10.37,2013-09-30 07:11:00,
2013-09-30 09:12:00,65.6,62.9,29.63,NE,38,0.0,0.0,91,0.00,FEW,,0.92,102.0,WeatherDisplay:10.37,2013-09-30 07:12:00,
2013-09-30 09:13:00,65.6,62.9,29.63,NE,38,0.0,0.0,91,0.00,FEW,,0.92,102.0,WeatherDisplay:10.37,2013-09-30 07:13:00,
2013-09-30 09:15:00,65.6,62.9,29.63,NE,38,0.0,0.0,91,0.00,FEW,,0.92,79.0,WeatherDisplay:10.37,2013-09-30 07:15:00,
2013-09-30 09:16:00,65.6,62.9,29.63,NE,38,0.0,0.0,91,0.00,FEW,,0.92,79.0,WeatherDisplay:10.37,2013-09-30 07:16:00,
2013-09-30 09:17:00,65.6,62.9,29.63,NE,38,0.0,0.0,91,0.00,FEW,,0.92,79.0,WeatherDisplay:10.37,2013-09-30 07:17:00,
2013-09-30 09:18:00,65.7,63.0,29.63,NE,38,0.0,0.0,91,0.00,FEW,,0.92,86.0,WeatherDisplay:10.37,2013-09-30 07:18:00,
2013-09-30 09:20:00,65.7,63.0,29.63,NE,38,0.0,0.0,91,0.00,FEW,,0.92,86.0,WeatherDisplay:10.37,2013-09-30 07:20:00,
2013-09-30 09:21:00,65.7,63.0,29.63,NE,36,0.0,0.0,91,0.00,FEW,,0.92,86.0,WeatherDisplay:10.37,2013-09-30 07:21:00,
2013-09-30 09:23:00,65.7,63.0,29.63,NE,38,0.0,0.0,91,0.00,FEW,,0.92,91.0,WeatherDisplay:10.37,2013-09-30 07:23:00,
2013-09-30 09:24:00,65.7,63.0,29.63,NE,38,0.0,0.0,91,0.00,FEW,,0.92,91.0,WeatherDisplay:10.37,2013-09-30 07:24:00,
2013-09-30 09:26:00,65.7,63.0,29.63,NE,38,0.0,0.0,91,0.00,FEW,,0.92,91.0,WeatherDisplay:10.37,2013-09-30 07:26:00,
2013-09-30 09:28:00,65.8,63.1,29.63,East,79,0.0,0.1,91,0.00,FEW,,0.92,116.0,WeatherDisplay:10.37,2013-09-30 07:28:00,
2013-09-30 09:29:00,65.8,63.1,29.63,East,79,1.2,1.2,91,0.00,FEW,,0.92,116.0,WeatherDisplay:10.37,2013-09-30 07:29:00,
2013-09-30 09:31:00,65.8,63.1,29.63,East,79,0.0,0.0,91,0.00,FEW,,0.92,130.0,WeatherDisplay:10.37,2013-09-30 07:31:00,
2013-09-30 09:32:00,65.8,63.1,29.63,East,79,0.0,0.0,91,0.00,FEW,,0.92,130.0,WeatherDisplay:10.37,2013-09-30 07:32:00,
2013-09-30 09:33:00,65.8,63.1,29.63,East,79,0.0,0.0,91,0.00,FEW,,0.92,135.0,WeatherDisplay:10.37,2013-09-30 07:33:00,
2013-09-30 09:34:00,65.9,63.2,29.63,East,79,0.0,0.0,91,0.00,FEW,,0.92,127.0,WeatherDisplay:10.37,2013-09-30 07:34:00,
2013-09-30 09:35:00,65.9,63.2,29.63,East,79,0.0,0.0,91,0.00,FEW,,0.92,127.0,WeatherDisplay:10.37,2013-09-30 07:35:00,
2013-09-30 09:36:00,65.9,63.2,29.63,East,79,0.0,0.0,91,0.00,FEW,,0.92,144.0,WeatherDisplay:10.37,2013-09-30 07:36:00,
2013-09-30 09:37:00,65.9,63.2,29.63,East,79,0.0,0.0,91,0.00,FEW,,0.92,155.0,WeatherDisplay:10.37,2013-09-30 07:37:00,
2013-09-30 09:40:00,66.1,63.4,29.63,East,79,0.0,0.0,91,0.00,FEW,,0.92,183.0,WeatherDisplay:10.37,2013-09-30 07:40:00,
2013-09-30 09:41:00,66.2,63.5,29.63,East,79,0.0,0.0,91,0.00,FEW,,0.92,141.0,WeatherDisplay:10.37,2013-09-30 07:41:00,
2013-09-30 09:42:00,66.2,63.5,29.63,East,79,0.0,0.0,91,0.00,FEW,,0.92,181.0,WeatherDisplay:10.37,2013-09-30 07:42:00,
2013-09-30 09:45:00,66.2,63.8,29.63,East,96,0.0,0.0,92,0.00,FEW,,0.92,227.0,WeatherDisplay:10.37,2013-09-30 07:45:00,
2013-09-30 09:47:00,66.3,63.9,29.63,East,96,0.0,0.0,92,0.00,FEW,,0.92,209.0,WeatherDisplay:10.37,2013-09-30 07:47:00,
2013-09-30 09:48:00,66.4,64.0,29.63,East,96,0.0,0.0,92,0.00,CLR,,0.92,264.0,WeatherDisplay:10.37,2013-09-30 07:48:00,
2013-09-30 09:50:00,66.5,64.1,29.63,East,95,0.0,0.0,92,0.00,CLR,,0.92,410.0,WeatherDisplay:10.37,2013-09-30 07:50:00,
2013-09-30 09:51:00,66.5,64.1,29.63,East,95,0.0,0.0,92,0.00,CLR,,0.92,410.0,WeatherDisplay:10.37,2013-09-30 07:51:00,
2013-09-30 09:52:00,66.5,64.1,29.63,East,95,0.0,0.0,92,0.00,CLR,,0.92,410.0,WeatherDisplay:10.37,2013-09-30 07:52:00,
2013-09-30 09:54:00,66.6,64.2,29.64,East,92,0.0,0.0,92,0.00,CLR,,0.92,388.0,WeatherDisplay:10.37,2013-09-30 07:54:00,
2013-09-30 09:56:00,66.7,64.3,29.64,East,97,0.0,0.0,92,0.00,CLR,,0.92,388.0,WeatherDisplay:10.37,2013-09-30 07:56:00,
2013-09-30 09:57:00,66.8,64.4,29.64,East,97,1.2,0.0,92,0.00,CLR,,0.92,388.0,WeatherDisplay:10.37,2013-09-30 07:57:00,
2013-09-30 09:59:00,66.9,64.5,29.64,SSE,147,0.0,0.0,92,0.00,CLR,,0.92,192.0,WeatherDisplay:10.37,2013-09-30 07:59:00,
2013-09-30 10:01:00,66.9,64.5,29.64,SE,136,3.5,3.5,92,0.00,CLR,,0.92,192.0,WeatherDisplay:10.37,2013-09-30 08:01:00,
2013-09-30 10:02:00,66.9,64.5,29.64,ESE,118,3.5,3.5,92,0.00,CLR,,0.92,155.0,WeatherDisplay:10.37,2013-09-30 08:02:00,
2013-09-30 10:04:00,66.8,64.1,29.64,ESE,115,2.3,0.0,91,0.00,CLR,,0.92,139.0,WeatherDisplay:10.37,2013-09-30 08:04:00,
2013-09-30 10:07:00,66.8,64.1,29.64,ESE,119,0.0,0.0,91,0.00,FEW,,0.92,125.0,WeatherDisplay:10.37,2013-09-30 08:07:00,
2013-09-30 10:08:00,66.8,64.1,29.64,ESE,119,0.0,0.0,91,0.00,FEW,,0.92,125.0,WeatherDisplay:10.37,2013-09-30 08:08:00,
2013-09-30 10:09:00,66.8,64.1,29.64,ESE,119,0.0,0.0,91,0.00,FEW,,0.92,139.0,WeatherDisplay:10.37,2013-09-30 08:09:00,
2013-09-30 10:12:00,66.9,64.2,29.64,ESE,112,0.0,0.0,91,0.00,FEW,,0.92,139.0,WeatherDisplay:10.37,2013-09-30 08:12:00,
2013-09-30 10:13:00,66.9,64.2,29.64,ESE,118,0.0,0.0,91,0.00,FEW,,0.92,144.0,WeatherDisplay:10.37,2013-09-30 08:13:00,
2013-09-30 10:14:00,66.9,64.2,29.64,ESE,120,0.0,0.0,91,0.00,FEW,,0.92,151.0,WeatherDisplay:10.37,2013-09-30 08:14:00,
2013-09-30 10:15:00,66.8,64.1,29.64,ESE,119,0.0,0.0,91,0.00,FEW,,0.92,155.0,WeatherDisplay:10.37,2013-09-30 08:15:00,
2013-09-30 10:17:00,66.8,64.1,29.64,ESE,118,4.6,4.6,91,0.00,FEW,,0.92,155.0,WeatherDisplay:10.37,2013-09-30 08:17:00,
2013-09-30 10:18:00,66.9,64.2,29.64,SE,132,5.0,5.0,91,0.00,FEW,,0.92,169.0,WeatherDisplay:10.37,2013-09-30 08:18:00,
2013-09-30 10:20:00,66.9,64.2,29.64,SE,127,4.6,4.6,91,0.00,FEW,,0.92,149.0,WeatherDisplay:10.37,2013-09-30 08:20:00,
2013-09-30 10:22:00,66.9,64.2,29.64,East,79,5.0,5.0,91,0.00,FEW,,0.92,178.0,WeatherDisplay:10.37,2013-09-30 08:22:00,
2013-09-30 10:23:00,67.0,64.3,29.64,East,89,4.6,4.6,91,0.00,FEW,,0.92,213.0,WeatherDisplay:10.37,2013-09-30 08:23:00,
2013-09-30 10:25:00,67.0,64.3,29.64,ESE,123,3.5,3.5,91,0.00,FEW,,0.92,218.0,WeatherDisplay:10.37,2013-09-30 08:25:00,
2013-09-30 10:26:00,67.1,64.4,29.64,ESE,121,2.0,2.0,91,0.00,FEW,,0.92,209.0,WeatherDisplay:10.37,2013-09-30 08:26:00,
2013-09-30 10:28:00,67.3,64.6,29.64,East,101,1.2,0.0,91,0.00,FEW,,0.92,162.0,WeatherDisplay:10.37,2013-09-30 08:28:00,
2013-09-30 10:30:00,67.3,64.6,29.64,East,86,3.5,3.5,91,0.00,FEW,,0.92,167.0,WeatherDisplay:10.37,2013-09-30 08:30:00,
2013-09-30 10:31:00,67.4,64.7,29.64,ENE,68,3.5,3.5,91,0.00,FEW,,0.92,169.0,WeatherDisplay:10.37,2013-09-30 08:31:00,
2013-09-30 10:33:00,67.5,64.8,29.64,SE,126,0.0,0.0,91,0.00,FEW,,0.92,178.0,WeatherDisplay:10.37,2013-09-30 08:33:00,
2013-09-30 10:35:00,67.6,64.9,29.64,East,101,3.0,3.0,91,0.00,FEW,,0.92,167.0,WeatherDisplay:10.37,2013-09-30 08:35:00,
2013-09-30 10:36:00,67.6,64.9,29.64,ESE,112,4.6,4.6,91,0.00,FEW,,0.92,167.0,WeatherDisplay:10.37,2013-09-30 08:36:00,
2013-09-30 10:38:00,67.7,65.0,29.64,SE,138,3.5,3.5,91,0.00,FEW,,0.92,171.0,WeatherDisplay:10.37,2013-09-30 08:38:00,
2013-09-30 10:40:00,67.7,65.0,29.64,SE,128,2.3,2.3,91,0.00,FEW,,0.92,214.0,WeatherDisplay:10.37,2013-09-30 08:40:00,
2013-09-30 10:41:00,67.7,65.0,29.64,SE,128,2.3,0.0,91,0.00,FEW,,0.92,214.0,WeatherDisplay:10.37,2013-09-30 08:41:00,
2013-09-30 10:43:00,67.9,65.2,29.64,SE,126,4.0,4.0,91,0.00,FEW,,0.92,246.0,WeatherDisplay:10.37,2013-09-30 08:43:00,
2013-09-30 10:46:00,68.0,65.0,29.64,SE,132,3.5,3.5,90,0.00,FEW,,0.92,278.0,WeatherDisplay:10.37,2013-09-30 08:46:00,
2013-09-30 10:47:00,68.1,65.1,29.64,ESE,112,3.5,3.5,90,0.00,FEW,,0.92,253.0,WeatherDisplay:10.37,2013-09-30 08:47:00,
2013-09-30 10:48:00,68.2,65.5,29.64,SE,129,4.6,4.6,91,0.00,FEW,,0.92,309.0,WeatherDisplay:10.37,2013-09-30 08:48:00,
2013-09-30 10:49:00,68.2,65.5,29.64,SE,133,4.6,4.6,91,0.00,FEW,,0.92,309.0,WeatherDisplay:10.37,2013-09-30 08:49:00,
2013-09-30 10:51:00,68.4,65.7,29.63,SE,125,3.5,3.5,91,0.00,FEW,,0.92,403.0,WeatherDisplay:10.37,2013-09-30 08:51:00,
2013-09-30 10:53:00,68.6,65.5,29.63,SSE,162,5.8,5.8,90,0.00,FEW,,0.92,411.0,WeatherDisplay:10.37,2013-09-30 08:53:00,
2013-09-30 10:54:00,68.8,65.7,29.63,SSE,163,2.3,0.0,90,0.00,CLR,,0.92,411.0,WeatherDisplay:10.37,2013-09-30 08:54:00,
2013-09-30 10:56:00,69.3,66.2,29.63,SSE,168,0.0,0.0,90,0.00,CLR,,0.92,411.0,WeatherDisplay:10.37,2013-09-30 08:56:00,
2013-09-30 10:59:00,69.7,66.6,29.63,SSE,157,9.2,9.2,90,0.00,CLR,,0.92,392.0,WeatherDisplay:10.37,2013-09-30 08:59:00,
2013-09-30 11:00:00,69.7,66.3,29.63,SSE,147,5.0,5.0,89,0.00,CLR,,0.92,392.0,WeatherDisplay:10.37,2013-09-30 09:00:00,
2013-09-30 11:01:00,69.7,66.3,29.63,SE,132,5.8,5.8,89,0.00,CLR,,0.92,392.0,WeatherDisplay:10.37,2013-09-30 09:01:00,
2013-09-30 11:04:00,69.9,66.5,29.63,SE,139,6.0,6.0,89,0.00,CLR,,0.92,265.0,WeatherDisplay:10.37,2013-09-30 09:04:00,
2013-09-30 11:05:00,70.0,66.6,29.62,SSE,148,5.8,5.8,89,0.00,CLR,,0.92,302.0,WeatherDisplay:10.37,2013-09-30 09:05:00,
2013-09-30 11:06:00,70.1,66.7,29.62,SSE,151,1.2,0.0,89,0.00,CLR,,0.92,336.0,WeatherDisplay:10.37,2013-09-30 09:06:00,
2013-09-30 11:09:00,70.5,66.8,29.62,South,175,8.1,8.1,88,0.00,CLR,,0.92,367.0,WeatherDisplay:10.37,2013-09-30 09:09:00,
2013-09-30 11:10:00,70.6,66.9,29.62,South,170,3.5,3.5,88,0.00,FEW,,0.92,367.0,WeatherDisplay:10.37,2013-09-30 09:10:00,
2013-09-30 11:11:00,70.7,66.6,29.62,SE,139,4.0,4.0,87,0.00,FEW,,0.92,436.0,WeatherDisplay:10.37,2013-09-30 09:11:00,
2013-09-30 11:14:00,70.9,66.8,29.62,SE,130,9.0,9.0,87,0.00,CLR,,0.92,457.0,WeatherDisplay:10.37,2013-09-30 09:14:00,
2013-09-30 11:15:00,70.9,66.5,29.62,SSE,148,9.2,9.2,86,0.00,CLR,,0.92,457.0,WeatherDisplay:10.37,2013-09-30 09:15:00,
2013-09-30 11:16:00,70.9,66.5,29.63,SSE,158,8.1,8.1,86,0.00,CLR,,0.92,457.0,WeatherDisplay:10.37,2013-09-30 09:16:00,
2013-09-30 11:20:00,71.2,66.1,29.62,SE,138,3.0,3.0,84,0.00,CLR,,0.92,211.0,WeatherDisplay:10.37,2013-09-30 09:20:00,
2013-09-30 11:21:00,71.3,66.2,29.62,SE,139,3.5,3.5,84,0.00,CLR,,0.92,218.0,WeatherDisplay:10.37,2013-09-30 09:21:00,
2013-09-30 11:22:00,71.4,66.3,29.62,ESE,119,0.0,0.0,84,0.00,CLR,,0.92,239.0,WeatherDisplay:10.37,2013-09-30 09:22:00,
2013-09-30 11:25:00,71.7,66.6,29.62,WSW,258,0.0,0.2,84,0.00,FEW,,0.92,190.0,WeatherDisplay:10.37,2013-09-30 09:25:00,
2013-09-30 11:26:00,71.9,66.5,29.62,WSW,258,1.2,1.2,83,0.00,FEW,,0.92,190.0,WeatherDisplay:10.37,2013-09-30 09:26:00,
2013-09-30 11:27:00,72.0,66.6,29.62,West,281,1.0,0.0,83,0.00,FEW,,0.92,190.0,WeatherDisplay:10.37,2013-09-30 09:27:00,
2013-09-30 11:30:00,72.1,65.9,29.62,WNW,285,4.6,4.6,81,0.00,FEW,,0.92,724.0,WeatherDisplay:10.37,2013-09-30 09:30:00,
2013-09-30 11:31:00,72.2,66.0,29.62,West,263,3.5,3.5,81,0.00,FEW,,0.92,724.0,WeatherDisplay:10.37,2013-09-30 09:31:00,
2013-09-30 11:32:00,72.3,66.1,29.62,West,263,3.5,0.0,81,0.00,FEW,,0.92,724.0,WeatherDisplay:10.37,2013-09-30 09:32:00,
2013-09-30 11:35:00,72.8,65.9,29.62,SSE,149,2.3,2.3,79,0.00,FEW,,0.92,724.0,WeatherDisplay:10.37,2013-09-30 09:35:00,
2013-09-30 11:36:00,72.9,66.0,29.62,SSE,149,0.0,0.0,79,0.00,FEW,,0.92,724.0,WeatherDisplay:10.37,2013-09-30 09:36:00,
2013-09-30 11:37:00,73.0,66.1,29.62,SE,146,0.0,0.0,79,0.00,CLR,,0.92,724.0,WeatherDisplay:10.37,2013-09-30 09:37:00,
2013-09-30 11:38:00,73.1,65.8,29.62,SE,144,0.0,0.0,78,0.00,CLR,,0.92,149.0,WeatherDisplay:10.37,2013-09-30 09:38:00,
2013-09-30 11:41:00,73.2,65.9,29.62,West,267,5.8,5.8,78,0.00,CLR,,0.92,149.0,WeatherDisplay:10.37,2013-09-30 09:41:00,
2013-09-30 11:42:00,73.2,65.6,29.62,West,266,5.8,5.8,77,0.00,FEW,,0.92,149.0,WeatherDisplay:10.37,2013-09-30 09:42:00,
2013-09-30 11:44:00,73.2,65.6,29.62,WSW,239,1.2,1.2,77,0.00,FEW,,0.92,745.0,WeatherDisplay:10.37,2013-09-30 09:44:00,
2013-09-30 11:46:00,73.3,65.3,29.62,SSW,195,1.2,1.9,76,0.00,FEW,,0.92,146.0,WeatherDisplay:10.37,2013-09-30 09:46:00,
2013-09-30 11:47:00,73.3,65.3,29.62,South,190,0.0,0.0,76,0.00,FEW,,0.92,135.0,WeatherDisplay:10.37,2013-09-30 09:47:00,
2013-09-30 11:48:00,73.3,65.3,29.62,SSW,195,0.0,0.0,76,0.00,FEW,,0.92,135.0,WeatherDisplay:10.37,2013-09-30 09:48:00,
2013-09-30 11:49:00,73.4,65.4,29.62,SW,225,6.0,6.0,76,0.00,FEW,,0.92,135.0,WeatherDisplay:10.37,2013-09-30 09:49:00,
2013-09-30 11:52:00,73.4,65.4,29.62,SW,219,6.9,6.9,76,0.00,FEW,,0.92,227.0,WeatherDisplay:10.37,2013-09-30 09:52:00,
2013-09-30 11:54:00,73.6,65.6,29.62,WSW,254,5.8,5.8,76,0.00,FEW,,0.92,775.0,WeatherDisplay:10.37,2013-09-30 09:54:00,
2013-09-30 11:57:00,73.7,65.7,29.62,WNW,282,9.2,9.2,76,0.00,FEW,,0.92,742.0,WeatherDisplay:10.37,2013-09-30 09:57:00,
2013-09-30 11:58:00,73.7,65.7,29.62,WSW,240,8.0,8.0,76,0.00,FEW,,0.92,158.0,WeatherDisplay:10.37,2013-09-30 09:58:00,
2013-09-30 11:59:00,73.8,65.8,29.62,SSW,207,10.4,10.4,76,0.00,FEW,,0.92,158.0,WeatherDisplay:10.37,2013-09-30 09:59:00,
2013-09-30 12:00:00,73.7,65.3,29.62,SW,216,9.2,9.2,75,0.00,FEW,,0.92,158.0,WeatherDisplay:10.37,2013-09-30 10:00:00,
2013-09-30 12:02:00,73.7,65.3,29.62,WSW,250,10.4,10.4,75,0.00,FEW,,0.92,123.0,WeatherDisplay:10.37,2013-09-30 10:02:00,
2013-09-30 12:04:00,73.6,65.2,29.61,WSW,237,6.9,6.9,75,0.00,FEW,,0.92,185.0,WeatherDisplay:10.37,2013-09-30 10:04:00,
2013-09-30 12:06:00,73.6,64.8,29.61,West,267,8.1,8.1,74,0.00,FEW,,0.92,701.0,WeatherDisplay:10.37,2013-09-30 10:06:00,
2013-09-30 12:08:00,73.7,65.3,29.61,West,259,3.5,3.5,75,0.00,FEW,,0.92,700.0,WeatherDisplay:10.37,2013-09-30 10:08:00,
2013-09-30 12:09:00,73.8,65.4,29.61,West,267,5.8,5.8,75,0.00,FEW,,0.92,698.0,WeatherDisplay:10.37,2013-09-30 10:09:00,
2013-09-30 12:11:00,73.9,64.7,29.61,WSW,239,8.0,8.0,73,0.00,FEW,,0.92,700.0,WeatherDisplay:10.37,2013-09-30 10:11:00,
2013-09-30 12:13:00,73.9,64.7,29.61,WSW,244,10.4,10.4,73,0.00,CLR,,0.92,700.0,WeatherDisplay:10.37,2013-09-30 10:13:00,
2013-09-30 12:14:00,74.0,64.8,29.61,WSW,237,8.1,8.1,73,0.00,CLR,,0.92,700.0,WeatherDisplay:10.37,2013-09-30 10:14:00,
2013-09-30 12:18:00,74.4,65.6,29.61,WSW,256,4.6,0.0,74,0.00,CLR,,0.92,726.0,WeatherDisplay:10.37,2013-09-30 10:18:00,
2013-09-30 12:19:00,74.6,65.4,29.61,WSW,252,0.0,0.0,73,0.00,CLR,,0.92,758.0,WeatherDisplay:10.37,2013-09-30 10:19:00,
2013-09-30 12:20:00,74.6,65.4,29.61,SSW,209,6.0,6.0,73,0.00,CLR,,0.92,758.0,WeatherDisplay:10.37,2013-09-30 10:20:00,
2013-09-30 12:23:00,75.0,65.4,29.61,South,171,5.8,5.8,72,0.00,CLR,,0.92,796.0,WeatherDisplay:10.37,2013-09-30 10:23:00,
2013-09-30 12:24:00,75.2,65.1,29.61,SW,232,5.8,5.8,71,0.00,CLR,,0.92,796.0,WeatherDisplay:10.37,2013-09-30 10:24:00,
2013-09-30 12:25:00,75.3,65.2,29.61,WSW,258,3.5,3.5,71,0.00,CLR,,0.92,796.0,WeatherDisplay:10.37,2013-09-30 10:25:00,
2013-09-30 12:26:00,75.6,65.1,29.61,WSW,254,13.0,13.0,70,0.00,CLR,,0.92,831.0,WeatherDisplay:10.37,2013-09-30 10:26:00,
2013-09-30 12:28:00,75.5,64.2,29.61,SW,229,10.4,10.4,68,0.00,CLR,,0.92,816.0,WeatherDisplay:10.37,2013-09-30 10:28:00,
2013-09-30 12:30:00,75.6,64.7,29.61,WNW,282,10.0,10.0,69,0.00,CLR,,0.92,789.0,WeatherDisplay:10.37,2013-09-30 10:30:00,
2013-09-30 12:31:00,75.6,64.7,29.61,WSW,254,12.0,12.0,69,0.00,CLR,,0.92,802.0,WeatherDisplay:10.37,2013-09-30 10:31:00,
2013-09-30 12:34:00,75.6,64.3,29.61,WSW,240,12.7,12.7,68,0.00,CLR,,0.92,796.0,WeatherDisplay:10.37,2013-09-30 10:34:00,
2013-09-30 12:35:00,75.5,64.2,29.60,West,277,11.5,11.5,68,0.00,CLR,,0.92,796.0,WeatherDisplay:10.37,2013-09-30 10:35:00,
2013-09-30 12:36:00,75.5,64.2,29.60,WNW,296,10.4,10.4,68,0.00,CLR,,0.92,796.0,WeatherDisplay:10.37,2013-09-30 10:36:00,
2013-09-30 12:39:00,75.4,64.1,29.61,West,281,11.5,11.5,68,0.00,CLR,,0.92,796.0,WeatherDisplay:10.37,2013-09-30 10:39:00,
2013-09-30 12:41:00,75.4,64.1,29.60,WSW,254,9.0,9.0,68,0.00,CLR,,0.92,831.0,WeatherDisplay:10.37,2013-09-30 10:41:00,
2013-09-30 12:42:00,75.4,64.1,29.60,West,263,11.5,11.5,68,0.00,CLR,,0.92,223.0,WeatherDisplay:10.37,2013-09-30 10:42:00,
2013-09-30 12:44:00,75.4,64.5,29.60,WNW,298,6.9,6.9,69,0.00,CLR,,0.92,223.0,WeatherDisplay:10.37,2013-09-30 10:44:00,
2013-09-30 12:46:00,75.5,64.6,29.61,WNW,288,11.5,11.5,69,0.00,FEW,,0.92,223.0,WeatherDisplay:10.37,2013-09-30 10:46:00,
2013-09-30 12:47:00,75.5,64.6,29.61,West,269,12.0,12.0,69,0.00,FEW,,0.92,223.0,WeatherDisplay:10.37,2013-09-30 10:47:00,
2013-09-30 12:48:00,75.4,64.1,29.60,WNW,284,11.5,11.5,68,0.00,FEW,,0.92,714.0,WeatherDisplay:10.37,2013-09-30 10:48:00,
2013-09-30 12:49:00,75.5,64.2,29.60,SW,221,10.4,10.4,68,0.00,FEW,,0.92,714.0,WeatherDisplay:10.37,2013-09-30 10:49:00,
2013-09-30 12:52:00,75.5,64.2,29.61,West,272,9.2,9.2,68,0.00,FEW,,0.92,294.0,WeatherDisplay:10.37,2013-09-30 10:52:00,
2013-09-30 12:53:00,75.5,64.2,29.61,West,275,11.0,11.0,68,0.00,FEW,,0.92,304.0,WeatherDisplay:10.37,2013-09-30 10:53:00,
2013-09-30 12:55:00,75.5,64.6,29.61,WNW,295,11.5,11.5,69,0.00,FEW,,0.92,918.0,WeatherDisplay:10.37,2013-09-30 10:55:00,
2013-09-30 12:57:00,75.6,64.7,29.60,WNW,292,12.7,12.7,69,0.00,FEW,,0.92,918.0,WeatherDisplay:10.37,2013-09-30 10:57:00,
2013-09-30 12:59:00,75.5,64.6,29.60,West,267,7.0,7.0,69,0.00,CLR,,0.92,918.0,WeatherDisplay:10.37,2013-09-30 10:59:00,
2013-09-30 13:00:00,75.5,64.6,29.60,WSW,257,11.0,11.0,69,0.00,CLR,,0.92,918.0,WeatherDisplay:10.37,2013-09-30 11:00:00,
2013-09-30 13:02:00,75.5,64.6,29.60,WNW,301,10.4,10.4,69,0.00,CLR,,0.92,239.0,WeatherDisplay:10.37,2013-09-30 11:02:00,
2013-09-30 13:03:00,75.4,64.5,29.60,West,274,10.4,10.4,69,0.00,CLR,,0.92,239.0,WeatherDisplay:10.37,2013-09-30 11:03:00,
2013-09-30 13:04:00,75.3,64.0,29.61,WSW,251,12.0,12.0,68,0.00,CLR,,0.92,239.0,WeatherDisplay:10.37,2013-09-30 11:04:00,
2013-09-30 13:05:00,75.3,64.0,29.61,WSW,257,15.0,15.0,68,0.00,FEW,,0.92,239.0,WeatherDisplay:10.37,2013-09-30 11:05:00,
2013-09-30 13:06:00,75.3,64.0,29.60,SW,230,15.0,15.0,68,0.00,FEW,,0.92,267.0,WeatherDisplay:10.37,2013-09-30 11:06:00,
2013-09-30 13:08:00,75.4,64.1,29.60,West,261,12.7,12.7,68,0.00,FEW,,0.92,267.0,WeatherDisplay:10.37,2013-09-30 11:08:00,
2013-09-30 13:10:00,75.6,64.3,29.61,SW,232,15.0,15.0,68,0.00,FEW,,0.92,267.0,WeatherDisplay:10.37,2013-09-30 11:10:00,
2013-09-30 13:11:00,75.6,64.3,29.60,WSW,250,12.0,12.0,68,0.00,FEW,,0.92,267.0,WeatherDisplay:10.37,2013-09-30 11:11:00,
2013-09-30 13:14:00,75.6,63.9,29.60,West,267,9.2,9.2,67,0.00,FEW,,0.92,821.0,WeatherDisplay:10.37,2013-09-30 11:14:00,
2013-09-30 13:16:00,75.7,64.0,29.60,West,265,18.4,18.4,67,0.00,FEW,,0.92,288.0,WeatherDisplay:10.37,2013-09-30 11:16:00,
2013-09-30 13:17:00,75.7,64.0,29.60,West,275,16.1,16.1,67,0.00,FEW,,0.92,236.0,WeatherDisplay:10.37,2013-09-30 11:17:00,
2013-09-30 13:19:00,75.6,63.4,29.60,West,263,16.1,16.1,66,0.00,FEW,,0.92,234.0,WeatherDisplay:10.37,2013-09-30 11:19:00,
2013-09-30 13:21:00,75.3,63.2,29.60,WNW,290,19.6,19.6,66,0.00,FEW,,0.92,146.0,WeatherDisplay:10.37,2013-09-30 11:21:00,
2013-09-30 13:22:00,75.2,63.1,29.60,West,263,16.1,16.1,66,0.00,FEW,,0.92,146.0,WeatherDisplay:10.37,2013-09-30 11:22:00,
2013-09-30 13:24:00,75.0,62.9,29.60,West,275,17.3,17.3,66,0.00,FEW,,0.92,107.0,WeatherDisplay:10.37,2013-09-30 11:24:00,
2013-09-30 13:25:00,74.8,62.7,29.60,WSW,257,15.0,15.0,66,0.00,SCT,,0.92,105.0,WeatherDisplay:10.37,2013-09-30 11:25:00,
2013-09-30 13:27:00,74.7,62.6,29.60,West,265,17.3,17.3,66,0.00,SCT,,0.92,116.0,WeatherDisplay:10.37,2013-09-30 11:27:00,
2013-09-30 13:29:00,74.6,62.9,29.60,WSW,255,16.1,16.1,67,0.00,SCT,,0.92,116.0,WeatherDisplay:10.37,2013-09-30 11:29:00,
2013-09-30 13:30:00,74.5,62.8,29.59,West,265,17.3,17.3,67,0.00,SCT,,0.92,116.0,WeatherDisplay:10.37,2013-09-30 11:30:00,
2013-09-30 13:32:00,74.5,62.8,29.60,West,260,18.4,18.4,67,0.00,SCT,,0.92,116.0,WeatherDisplay:10.37,2013-09-30 11:32:00,
2013-09-30 13:35:00,74.6,62.9,29.60,West,277,15.0,15.0,67,0.00,SCT,,0.92,116.0,WeatherDisplay:10.37,2013-09-30 11:35:00,
2013-09-30 13:38:00,74.5,63.2,29.60,West,262,18.4,18.4,68,0.00,SCT,,0.92,116.0,WeatherDisplay:10.37,2013-09-30 11:38:00,
2013-09-30 13:39:00,74.6,63.3,29.60,WSW,246,15.0,15.0,68,0.00,SCT,,0.92,116.0,WeatherDisplay:10.37,2013-09-30 11:39:00,
2013-09-30 13:40:00,74.7,63.4,29.60,West,261,13.8,13.8,68,0.00,SCT,,0.92,116.0,WeatherDisplay:10.37,2013-09-30 11:40:00,
2013-09-30 13:41:00,74.7,63.4,29.61,West,267,13.8,13.8,68,0.00,SCT,,0.92,116.0,WeatherDisplay:10.37,2013-09-30 11:41:00,
2013-09-30 13:43:00,74.8,63.9,29.60,West,271,15.0,15.0,69,0.00,SCT,,0.92,116.0,WeatherDisplay:10.37,2013-09-30 11:43:00,
2013-09-30 13:44:00,74.8,63.5,29.60,West,264,20.0,20.0,68,0.00,SCT,,0.92,116.0,WeatherDisplay:10.37,2013-09-30 11:44:00,
2013-09-30 13:46:00,75.0,63.7,29.60,WSW,250,17.3,17.3,68,0.00,FEW,,0.92,817.0,WeatherDisplay:10.37,2013-09-30 11:46:00,
2013-09-30 13:48:00,75.3,63.6,29.61,WSW,238,20.7,20.7,67,0.00,FEW,,0.92,817.0,WeatherDisplay:10.37,2013-09-30 11:48:00,
2013-09-30 13:50:00,75.2,63.5,29.60,SW,230,19.6,19.6,67,0.00,FEW,,0.92,817.0,WeatherDisplay:10.37,2013-09-30 11:50:00,
2013-09-30 13:51:00,75.2,63.9,29.60,West,259,19.6,19.6,68,0.00,FEW,,0.92,88.0,WeatherDisplay:10.37,2013-09-30 11:51:00,
2013-09-30 13:52:00,75.1,63.8,29.60,West,267,15.0,15.0,68,0.00,FEW,,0.92,88.0,WeatherDisplay:10.37,2013-09-30 11:52:00,
2013-09-30 13:53:00,75.1,63.8,29.60,WSW,254,15.0,15.0,68,0.00,FEW,,0.92,91.0,WeatherDisplay:10.37,2013-09-30 11:53:00,
2013-09-30 13:56:00,74.9,64.0,29.60,WSW,246,13.0,13.0,69,0.00,FEW,,0.92,134.0,WeatherDisplay:10.37,2013-09-30 11:56:00,
2013-09-30 13:57:00,74.8,63.9,29.60,WNW,287,18.4,18.4,69,0.00,FEW,,0.92,139.0,WeatherDisplay:10.37,2013-09-30 11:57:00,
2013-09-30 13:58:00,74.7,63.9,29.60,WSW,254,19.0,19.0,69,0.00,FEW,,0.92,137.0,WeatherDisplay:10.37,2013-09-30 11:58:00,
2013-09-30 13:59:00,74.6,63.8,29.60,WSW,256,19.6,19.6,69,0.00,FEW,,0.92,137.0,WeatherDisplay:10.37,2013-09-30 11:59:00,
2013-09-30 14:01:00,74.3,63.5,29.60,WSW,257,18.4,18.4,69,0.00,SCT,,0.92,172.0,WeatherDisplay:10.37,2013-09-30 12:01:00,
2013-09-30 14:02:00,74.3,63.5,29.60,WSW,241,18.4,18.4,69,0.00,SCT,,0.92,172.0,WeatherDisplay:10.37,2013-09-30 12:02:00,
2013-09-30 14:04:00,74.2,63.8,29.59,West,260,16.1,16.1,70,0.00,SCT,,0.92,185.0,WeatherDisplay:10.37,2013-09-30 12:04:00,
2013-09-30 14:07:00,74.1,63.7,29.59,West,267,12.7,12.7,70,0.00,SCT,,0.92,202.0,WeatherDisplay:10.37,2013-09-30 12:07:00,
2013-09-30 14:08:00,74.1,63.7,29.59,WSW,240,11.5,11.5,70,0.00,SCT,,0.92,213.0,WeatherDisplay:10.37,2013-09-30 12:08:00,
2013-09-30 14:09:00,74.0,63.6,29.60,WSW,250,21.9,21.9,70,0.00,SCT,,0.92,216.0,WeatherDisplay:10.37,2013-09-30 12:09:00,
2013-09-30 14:12:00,73.9,63.5,29.60,West,259,19.6,19.6,70,0.00,FEW,,0.92,221.0,WeatherDisplay:10.37,2013-09-30 12:12:00,
2013-09-30 14:13:00,73.8,63.4,29.60,West,281,15.0,15.0,70,0.00,FEW,,0.92,221.0,WeatherDisplay:10.37,2013-09-30 12:13:00,
2013-09-30 14:14:00,73.8,63.4,29.59,West,266,15.0,15.0,70,0.00,FEW,,0.92,221.0,WeatherDisplay:10.37,2013-09-30 12:14:00,
2013-09-30 14:15:00,73.8,63.4,29.60,WSW,256,12.7,12.7,70,0.00,FEW,,0.92,213.0,WeatherDisplay:10.37,2013-09-30 12:15:00,
2013-09-30 14:17:00,73.8,63.4,29.60,West,265,13.0,13.0,70,0.00,FEW,,0.92,209.0,WeatherDisplay:10.37,2013-09-30 12:17:00,
2013-09-30 14:19:00,73.8,63.4,29.60,WSW,258,19.6,19.6,70,0.00,FEW,,0.92,188.0,WeatherDisplay:10.37,2013-09-30 12:19:00,
2013-09-30 14:20:00,73.8,63.4,29.60,West,260,19.6,19.6,70,0.00,FEW,,0.92,188.0,WeatherDisplay:10.37,2013-09-30 12:20:00,
2013-09-30 14:21:00,73.8,63.4,29.59,WSW,242,18.0,18.0,70,0.00,FEW,,0.92,183.0,WeatherDisplay:10.37,2013-09-30 12:21:00,
2013-09-30 14:22:00,73.8,63.4,29.60,WSW,249,18.4,18.4,70,0.00,FEW,,0.92,183.0,WeatherDisplay:10.37,2013-09-30 12:22:00,
2013-09-30 14:23:00,73.7,63.3,29.59,West,262,18.4,18.4,70,0.00,FEW,,0.92,183.0,WeatherDisplay:10.37,2013-09-30 12:23:00,
2013-09-30 14:25:00,73.6,63.2,29.59,West,271,11.5,11.5,70,0.00,SCT,,0.92,163.0,WeatherDisplay:10.37,2013-09-30 12:25:00,
2013-09-30 14:27:00,73.6,63.2,29.59,West,271,15.0,15.0,70,0.00,SCT,,0.92,156.0,WeatherDisplay:10.37,2013-09-30 12:27:00,
2013-09-30 14:28:00,73.6,63.6,29.59,WSW,252,16.1,16.1,71,0.00,SCT,,0.92,156.0,WeatherDisplay:10.37,2013-09-30 12:28:00,
2013-09-30 14:30:00,73.4,63.4,29.59,SSW,192,12.7,12.7,71,0.00,SCT,,0.92,156.0,WeatherDisplay:10.37,2013-09-30 12:30:00,
2013-09-30 14:32:00,73.4,63.8,29.59,West,267,10.4,10.4,72,0.00,SCT,,0.92,148.0,WeatherDisplay:10.37,2013-09-30 12:32:00,
2013-09-30 14:33:00,73.4,63.8,29.59,SW,234,8.1,8.1,72,0.00,SCT,,0.92,148.0,WeatherDisplay:10.37,2013-09-30 12:33:00,
2013-09-30 14:35:00,73.3,63.7,29.59,WSW,255,11.5,11.5,72,0.00,SCT,,0.92,148.0,WeatherDisplay:10.37,2013-09-30 12:35:00,
2013-09-30 14:36:00,73.3,63.7,29.60,WSW,250,15.0,15.0,72,0.00,SCT,,0.92,148.0,WeatherDisplay:10.37,2013-09-30 12:36:00,
2013-09-30 14:37:00,73.3,63.7,29.60,SW,232,16.1,16.1,72,0.00,SCT,,0.92,148.0,WeatherDisplay:10.37,2013-09-30 12:37:00,
2013-09-30 14:38:00,73.2,63.6,29.60,WSW,246,15.0,15.0,72,0.00,SCT,,0.92,142.0,WeatherDisplay:10.37,2013-09-30 12:38:00,
2013-09-30 14:40:00,73.2,63.6,29.60,West,262,15.0,15.0,72,0.00,SCT,,0.92,144.0,WeatherDisplay:10.37,2013-09-30 12:40:00,
2013-09-30 14:42:00,73.0,63.4,29.60,SW,228,16.1,16.1,72,0.00,SCT,,0.92,144.0,WeatherDisplay:10.37,2013-09-30 12:42:00,
2013-09-30 14:43:00,72.9,63.3,29.60,WSW,242,18.4,18.4,72,0.00,SCT,,0.92,141.0,WeatherDisplay:10.37,2013-09-30 12:43:00,
2013-09-30 14:45:00,72.9,63.3,29.60,SW,234,16.0,16.0,72,0.00,SCT,,0.92,141.0,WeatherDisplay:10.37,2013-09-30 12:45:00,
2013-09-30 14:47:00,72.8,63.6,29.60,WSW,250,13.8,13.8,73,0.00,SCT,,0.92,141.0,WeatherDisplay:10.37,2013-09-30 12:47:00,
2013-09-30 14:48:00,72.8,63.6,29.60,WSW,253,13.8,13.8,73,0.00,SCT,,0.92,141.0,WeatherDisplay:10.37,2013-09-30 12:48:00,
2013-09-30 14:49:00,72.9,63.7,29.60,WSW,254,12.7,12.7,73,0.00,SCT,,0.92,141.0,WeatherDisplay:10.37,2013-09-30 12:49:00,
2013-09-30 14:50:00,72.9,63.7,29.60,West,269,13.8,13.8,73,0.00,SCT,,0.92,125.0,WeatherDisplay:10.37,2013-09-30 12:50:00,
2013-09-30 14:51:00,72.9,63.7,29.60,West,269,13.8,13.8,73,0.00,SCT,,0.92,125.0,WeatherDisplay:10.37,2013-09-30 12:51:00,
2013-09-30 14:53:00,72.7,63.9,29.60,WSW,252,19.6,19.6,74,0.00,SCT,,0.92,118.0,WeatherDisplay:10.37,2013-09-30 12:53:00,
2013-09-30 14:54:00,72.7,63.9,29.60,WSW,245,20.0,20.0,74,0.00,SCT,,0.92,118.0,WeatherDisplay:10.37,2013-09-30 12:54:00,
2013-09-30 14:56:00,72.2,63.4,29.60,WSW,240,20.7,20.7,74,0.00,SCT,,0.92,118.0,WeatherDisplay:10.37,2013-09-30 12:56:00,
2013-09-30 14:59:00,71.8,63.4,29.60,WSW,244,13.0,13.0,75,0.00,FEW,,0.92,420.0,WeatherDisplay:10.37,2013-09-30 12:59:00,
2013-09-30 15:01:00,71.7,63.7,29.60,SW,222,15.0,15.0,76,0.00,FEW,,0.92,689.0,WeatherDisplay:10.37,2013-09-30 13:01:00,
2013-09-30 15:05:00,72.1,64.9,29.60,SSW,193,6.9,6.9,78,0.00,FEW,,0.92,392.0,WeatherDisplay:10.37,2013-09-30 13:05:00,
2013-09-30 15:06:00,72.2,65.0,29.60,WSW,242,6.9,6.9,78,0.00,FEW,,0.92,392.0,WeatherDisplay:10.37,2013-09-30 13:06:00,
2013-09-30 15:07:00,72.5,65.2,29.60,SSW,208,10.4,10.4,78,0.00,FEW,,0.92,364.0,WeatherDisplay:10.37,2013-09-30 13:07:00,
2013-09-30 15:08:00,72.5,65.2,29.60,SW,233,10.4,10.4,78,0.00,FEW,,0.92,364.0,WeatherDisplay:10.37,2013-09-30 13:08:00,
2013-09-30 15:10:00,72.5,64.9,29.60,WSW,238,16.1,16.1,77,0.00,FEW,,0.92,403.0,WeatherDisplay:10.37,2013-09-30 13:10:00,
2013-09-30 15:11:00,72.5,64.9,29.60,West,261,13.8,13.8,77,0.00,FEW,,0.92,403.0,WeatherDisplay:10.37,2013-09-30 13:11:00,
2013-09-30 15:13:00,72.5,64.9,29.60,WNW,286,16.1,16.1,77,0.00,FEW,,0.92,403.0,WeatherDisplay:10.37,2013-09-30 13:13:00,
2013-09-30 15:15:00,72.6,64.6,29.61,WSW,256,16.1,16.1,76,0.00,FEW,,0.92,403.0,WeatherDisplay:10.37,2013-09-30 13:15:00,
2013-09-30 15:17:00,72.7,64.3,29.60,WSW,238,13.8,13.8,75,0.00,FEW,,0.92,547.0,WeatherDisplay:10.37,2013-09-30 13:17:00,
2013-09-30 15:18:00,72.9,64.1,29.60,WSW,251,16.1,16.1,74,0.00,FEW,,0.92,547.0,WeatherDisplay:10.37,2013-09-30 13:18:00,
2013-09-30 15:19:00,73.0,64.2,29.60,West,265,16.1,16.1,74,0.00,FEW,,0.92,587.0,WeatherDisplay:10.37,2013-09-30 13:19:00,
2013-09-30 15:20:00,73.1,64.3,29.60,WSW,253,13.8,13.8,74,0.00,FEW,,0.92,538.0,WeatherDisplay:10.37,2013-09-30 13:20:00,
2013-09-30 15:22:00,73.4,65.0,29.59,WSW,252,11.5,11.5,75,0.00,CLR,,0.92,503.0,WeatherDisplay:10.37,2013-09-30 13:22:00,
2013-09-30 15:23:00,73.6,65.2,29.59,SW,234,11.5,11.5,75,0.00,CLR,,0.92,490.0,WeatherDisplay:10.37,2013-09-30 13:23:00,
2013-09-30 15:24:00,73.7,64.9,29.59,West,269,11.5,11.5,74,0.00,CLR,,0.92,487.0,WeatherDisplay:10.37,2013-09-30 13:24:00,
2013-09-30 15:25:00,73.8,65.0,29.59,WSW,254,11.5,11.5,74,0.00,CLR,,0.92,485.0,WeatherDisplay:10.37,2013-09-30 13:25:00,
2013-09-30 15:26:00,73.9,64.7,29.59,SW,236,8.1,8.1,73,0.00,CLR,,0.92,446.0,WeatherDisplay:10.37,2013-09-30 13:26:00,
2013-09-30 15:27:00,74.0,64.8,29.60,West,266,16.0,16.0,73,0.00,CLR,,0.92,345.0,WeatherDisplay:10.37,2013-09-30 13:27:00,
2013-09-30 15:29:00,73.9,64.3,29.60,West,261,13.8,13.8,72,0.00,CLR,,0.92,345.0,WeatherDisplay:10.37,2013-09-30 13:29:00,
2013-09-30 15:30:00,73.9,63.9,29.60,WSW,255,13.8,13.8,71,0.00,CLR,,0.92,345.0,WeatherDisplay:10.37,2013-09-30 13:30:00,
2013-09-30 15:31:00,73.8,63.8,29.59,West,268,13.8,13.8,71,0.00,FEW,,0.92,155.0,WeatherDisplay:10.37,2013-09-30 13:31:00,
2013-09-30 15:32:00,73.7,64.1,29.59,WSW,245,13.0,13.0,72,0.00,FEW,,0.92,155.0,WeatherDisplay:10.37,2013-09-30 13:32:00,
2013-09-30 15:34:00,73.6,63.6,29.59,WSW,251,12.7,12.7,71,0.00,FEW,,0.92,146.0,WeatherDisplay:10.37,2013-09-30 13:34:00,
2013-09-30 15:35:00,73.6,63.6,29.59,WSW,249,17.3,17.3,71,0.00,FEW,,0.92,137.0,WeatherDisplay:10.37,2013-09-30 13:35:00,
2013-09-30 15:36:00,73.5,63.5,29.59,WSW,246,11.5,11.5,71,0.00,FEW,,0.92,137.0,WeatherDisplay:10.37,2013-09-30 13:36:00,
2013-09-30 15:37:00,73.4,63.8,29.59,WSW,243,11.5,11.5,72,0.00,FEW,,0.92,137.0,WeatherDisplay:10.37,2013-09-30 13:37:00,
2013-09-30 15:40:00,73.4,63.8,29.59,SW,221,10.0,10.0,72,0.00,FEW,,0.92,243.0,WeatherDisplay:10.37,2013-09-30 13:40:00,
2013-09-30 15:57:00,73.8,63.8,29.59,West,281,12.7,12.7,71,0.00,FEW,,0.92,176.0,WeatherDisplay:10.37,2013-09-30 13:57:00,
2013-09-30 15:58:00,73.8,63.8,29.59,West,275,11.5,11.5,71,0.00,FEW,,0.92,167.0,WeatherDisplay:10.37,2013-09-30 13:58:00,
2013-09-30 16:02:00,73.6,63.6,29.59,West,270,11.5,11.5,71,0.00,RA,,0.92,186.0,WeatherDisplay:10.37,2013-09-30 14:02:00,
2013-09-30 16:03:00,73.6,63.6,29.59,West,281,12.7,12.7,71,0.00,RA,,0.92,186.0,WeatherDisplay:10.37,2013-09-30 14:03:00,
2013-09-30 16:07:00,73.5,63.9,29.59,West,280,11.0,11.0,72,0.00,FEW,,0.92,156.0,WeatherDisplay:10.37,2013-09-30 14:07:00,
2013-09-30 16:08:00,73.5,63.9,29.59,WSW,250,15.0,15.0,72,0.00,FEW,,0.92,156.0,WeatherDisplay:10.37,2013-09-30 14:08:00,
2013-09-30 16:09:00,73.5,63.9,29.59,WNW,287,15.0,15.0,72,0.00,FEW,,0.92,158.0,WeatherDisplay:10.37,2013-09-30 14:09:00,
2013-09-30 16:13:00,73.4,63.8,29.59,West,267,10.4,10.4,72,0.00,FEW,,0.92,142.0,WeatherDisplay:10.37,2013-09-30 14:13:00,
2013-09-30 16:14:00,73.4,63.8,29.59,West,266,6.9,6.9,72,0.00,FEW,,0.92,142.0,WeatherDisplay:10.37,2013-09-30 14:14:00,
2013-09-30 16:18:00,73.4,63.8,29.59,WNW,295,9.2,9.2,72,0.00,FEW,,0.92,151.0,WeatherDisplay:10.37,2013-09-30 14:18:00,
2013-09-30 16:19:00,73.3,63.7,29.58,WNW,302,9.2,9.2,72,0.00,FEW,,0.92,132.0,WeatherDisplay:10.37,2013-09-30 14:19:00,
2013-09-30 16:23:00,73.3,63.7,29.59,WNW,286,9.0,9.0,72,0.00,FEW,,0.92,160.0,WeatherDisplay:10.37,2013-09-30 14:23:00,
2013-09-30 16:24:00,73.3,63.7,29.59,WSW,252,10.4,10.4,72,0.00,FEW,,0.92,160.0,WeatherDisplay:10.37,2013-09-30 14:24:00,
2013-09-30 16:25:00,73.3,63.7,29.59,WSW,249,10.4,10.4,72,0.00,FEW,,0.92,160.0,WeatherDisplay:10.37,2013-09-30 14:25:00,
2013-09-30 16:29:00,73.3,63.7,29.58,West,277,11.5,11.5,72,0.00,FEW,,0.92,237.0,WeatherDisplay:10.37,2013-09-30 14:29:00,
2013-09-30 16:30:00,73.3,63.7,29.59,WSW,257,11.5,11.5,72,0.00,FEW,,0.92,185.0,WeatherDisplay:10.37,2013-09-30 14:30:00,
2013-09-30 16:31:00,73.4,63.8,29.58,WNW,300,9.2,9.2,72,0.00,FEW,,0.92,214.0,WeatherDisplay:10.37,2013-09-30 14:31:00,
2013-09-30 16:34:00,73.6,64.0,29.59,West,271,10.0,10.0,72,0.00,FEW,,0.92,214.0,WeatherDisplay:10.37,2013-09-30 14:34:00,
2013-09-30 16:35:00,73.8,63.8,29.59,West,265,17.3,17.3,71,0.00,FEW,,0.92,214.0,WeatherDisplay:10.37,2013-09-30 14:35:00,
2013-09-30 16:36:00,73.8,63.8,29.59,WNW,284,17.3,17.3,71,0.00,FEW,,0.92,214.0,WeatherDisplay:10.37,2013-09-30 14:36:00,
2013-09-30 16:39:00,73.9,63.5,29.59,SW,232,15.0,15.0,70,0.00,FEW,,0.92,403.0,WeatherDisplay:10.37,2013-09-30 14:39:00,
2013-09-30 16:40:00,74.1,63.7,29.59,WSW,240,15.0,15.0,70,0.00,FEW,,0.92,403.0,WeatherDisplay:10.37,2013-09-30 14:40:00,
2013-09-30 16:41:00,74.3,63.9,29.59,SW,225,15.0,15.0,70,0.00,FEW,,0.92,403.0,WeatherDisplay:10.37,2013-09-30 14:41:00,
2013-09-30 16:45:00,74.5,63.2,29.58,SSW,192,16.1,16.1,68,0.00,CLR,,0.92,381.0,WeatherDisplay:10.37,2013-09-30 14:45:00,
2013-09-30 16:46:00,74.4,63.1,29.58,WSW,242,11.5,11.5,68,0.00,CLR,,0.92,381.0,WeatherDisplay:10.37,2013-09-30 14:46:00,
2013-09-30 16:47:00,74.4,63.1,29.59,WSW,248,11.5,11.5,68,0.00,CLR,,0.92,381.0,WeatherDisplay:10.37,2013-09-30 14:47:00,
2013-09-30 16:48:00,74.4,63.1,29.59,WSW,242,11.5,11.5,68,0.00,CLR,,0.92,118.0,WeatherDisplay:10.37,2013-09-30 14:48:00,
2013-09-30 16:51:00,74.3,63.5,29.59,West,276,17.3,17.3,69,0.00,FEW,,0.92,107.0,WeatherDisplay:10.37,2013-09-30 14:51:00,
2013-09-30 16:52:00,74.3,63.5,29.59,West,261,11.5,11.5,69,0.00,FEW,,0.92,116.0,WeatherDisplay:10.37,2013-09-30 14:52:00,
2013-09-30 16:54:00,74.2,63.4,29.59,SW,230,9.0,9.0,69,0.00,FEW,,0.92,132.0,WeatherDisplay:10.37,2013-09-30 14:54:00,
2013-09-30 16:56:00,74.1,63.7,29.59,WSW,250,13.8,13.8,70,0.00,FEW,,0.92,125.0,WeatherDisplay:10.37,2013-09-30 14:56:00,
2013-09-30 16:57:00,74.0,63.6,29.59,WSW,249,11.5,11.5,70,0.00,FEW,,0.92,125.0,WeatherDisplay:10.37,2013-09-30 14:57:00,
2013-09-30 17:00:00,73.9,63.5,29.59,WSW,253,11.5,11.5,70,0.00,FEW,,0.92,125.0,WeatherDisplay:10.37,2013-09-30 15:00:00,
2013-09-30 17:03:00,73.7,63.3,29.60,WSW,250,12.7,12.7,70,0.00,FEW,,0.92,116.0,WeatherDisplay:10.37,2013-09-30 15:03:00,
2013-09-30 17:05:00,73.7,63.7,29.60,WNW,284,8.1,8.1,71,0.00,FEW,,0.92,125.0,WeatherDisplay:10.37,2013-09-30 15:05:00,
2013-09-30 17:08:00,73.7,63.7,29.60,WSW,242,11.5,11.5,71,0.00,FEW,,0.92,125.0,WeatherDisplay:10.37,2013-09-30 15:08:00,
2013-09-30 17:11:00,73.7,63.7,29.60,West,267,9.2,9.2,71,0.00,FEW,,0.92,142.0,WeatherDisplay:10.37,2013-09-30 15:11:00,
2013-09-30 17:13:00,73.8,63.4,29.60,SW,232,11.5,11.5,70,0.00,FEW,,0.92,142.0,WeatherDisplay:10.37,2013-09-30 15:13:00,
2013-09-30 17:14:00,73.9,63.5,29.60,WNW,284,11.5,11.5,70,0.00,FEW,,0.92,155.0,WeatherDisplay:10.37,2013-09-30 15:14:00,
2013-09-30 17:15:00,73.9,63.5,29.60,West,274,13.0,13.0,70,0.00,FEW,,0.92,146.0,WeatherDisplay:10.37,2013-09-30 15:15:00,
2013-09-30 17:17:00,73.9,63.5,29.60,West,262,12.7,12.7,70,0.00,FEW,,0.92,146.0,WeatherDisplay:10.37,2013-09-30 15:17:00,
2013-09-30 17:19:00,73.8,63.4,29.60,SW,226,11.5,11.5,70,0.00,FEW,,0.92,125.0,WeatherDisplay:10.37,2013-09-30 15:19:00,
2013-09-30 17:20:00,73.9,63.9,29.59,SSW,201,7.0,7.6,71,0.00,FEW,,0.92,125.0,WeatherDisplay:10.37,2013-09-30 15:20:00,
2013-09-30 17:22:00,74.0,64.0,29.59,SSW,212,10.4,10.4,71,0.00,FEW,,0.92,125.0,WeatherDisplay:10.37,2013-09-30 15:22:00,
2013-09-30 17:24:00,74.1,64.1,29.60,West,267,13.8,13.8,71,0.00,FEW,,0.92,125.0,WeatherDisplay:10.37,2013-09-30 15:24:00,
2013-09-30 17:25:00,74.1,64.1,29.60,SW,225,13.8,13.8,71,0.00,FEW,,0.92,125.0,WeatherDisplay:10.37,2013-09-30 15:25:00,
2013-09-30 17:28:00,74.2,64.2,29.60,WSW,257,11.5,11.5,71,0.00,FEW,,0.92,283.0,WeatherDisplay:10.37,2013-09-30 15:28:00,
2013-09-30 17:29:00,74.3,63.9,29.60,West,260,18.4,18.4,70,0.00,FEW,,0.92,283.0,WeatherDisplay:10.37,2013-09-30 15:29:00,
2013-09-30 17:30:00,74.2,63.8,29.60,WSW,246,18.4,18.4,70,0.00,FEW,,0.92,246.0,WeatherDisplay:10.37,2013-09-30 15:30:00,
2013-09-30 17:31:00,74.3,63.9,29.60,West,268,17.3,17.3,70,0.00,FEW,,0.92,211.0,WeatherDisplay:10.37,2013-09-30 15:31:00,
2013-09-30 17:33:00,74.3,63.9,29.60,WSW,248,18.4,18.4,70,0.00,FEW,,0.92,200.0,WeatherDisplay:10.37,2013-09-30 15:33:00,
2013-09-30 17:34:00,74.2,63.8,29.59,WSW,247,20.7,20.7,70,0.00,FEW,,0.92,188.0,WeatherDisplay:10.37,2013-09-30 15:34:00,
2013-09-30 17:35:00,74.1,63.7,29.59,WSW,257,19.6,19.6,70,0.00,FEW,,0.92,185.0,WeatherDisplay:10.37,2013-09-30 15:35:00,
2013-09-30 17:36:00,74.1,63.7,29.59,WSW,252,19.6,19.6,70,0.00,FEW,,0.92,181.0,WeatherDisplay:10.37,2013-09-30 15:36:00,
2013-09-30 17:37:00,73.9,63.9,29.59,SW,223,19.6,19.6,71,0.00,FEW,,0.92,176.0,WeatherDisplay:10.37,2013-09-30 15:37:00,
2013-09-30 17:38:00,73.9,63.9,29.59,WSW,240,13.0,13.0,71,0.00,FEW,,0.92,163.0,WeatherDisplay:10.37,2013-09-30 15:38:00,
2013-09-30 17:39:00,73.9,63.9,29.59,SW,236,13.0,13.0,71,0.00,FEW,,0.92,95.0,WeatherDisplay:10.37,2013-09-30 15:39:00,
2013-09-30 17:41:00,73.9,63.9,29.59,WSW,241,13.8,13.8,71,0.00,FEW,,0.92,98.0,WeatherDisplay:10.37,2013-09-30 15:41:00,
2013-09-30 17:42:00,73.9,63.9,29.59,West,267,11.5,11.5,71,0.00,FEW,,0.92,98.0,WeatherDisplay:10.37,2013-09-30 15:42:00,
2013-09-30 17:44:00,73.9,64.3,29.60,WSW,256,11.5,11.5,72,0.00,FEW,,0.92,98.0,WeatherDisplay:10.37,2013-09-30 15:44:00,
2013-09-30 17:45:00,73.9,64.3,29.60,West,275,9.2,9.2,72,0.00,FEW,,0.92,120.0,WeatherDisplay:10.37,2013-09-30 15:45:00,
2013-09-30 17:46:00,73.9,64.3,29.60,West,267,12.0,12.0,72,0.00,FEW,,0.92,113.0,WeatherDisplay:10.37,2013-09-30 15:46:00,
2013-09-30 17:48:00,73.8,64.2,29.60,West,261,11.5,11.5,72,0.00,FEW,,0.92,95.0,WeatherDisplay:10.37,2013-09-30 15:48:00,
2013-09-30 17:50:00,73.6,64.0,29.60,SW,224,11.5,11.5,72,0.00,FEW,,0.92,88.0,WeatherDisplay:10.37,2013-09-30 15:50:00,
2013-09-30 17:51:00,73.6,64.0,29.60,SW,235,13.8,13.8,72,0.00,FEW,,0.92,93.0,WeatherDisplay:10.37,2013-09-30 15:51:00,
2013-09-30 17:52:00,73.6,64.0,29.60,WSW,241,13.8,13.8,72,0.00,FEW,,0.92,93.0,WeatherDisplay:10.37,2013-09-30 15:52:00,
2013-09-30 17:53:00,73.4,63.8,29.60,WSW,249,16.1,16.1,72,0.00,FEW,,0.92,90.0,WeatherDisplay:10.37,2013-09-30 15:53:00,
2013-09-30 17:55:00,73.4,63.8,29.60,WSW,253,13.8,13.8,72,0.00,FEW,,0.92,90.0,WeatherDisplay:10.37,2013-09-30 15:55:00,
2013-09-30 17:56:00,73.3,64.1,29.60,WSW,249,13.8,13.8,73,0.00,FEW,,0.92,74.0,WeatherDisplay:10.37,2013-09-30 15:56:00,
2013-09-30 17:57:00,73.3,64.1,29.60,WSW,254,13.8,13.8,73,0.00,FEW,,0.92,74.0,WeatherDisplay:10.37,2013-09-30 15:57:00,
2013-09-30 17:58:00,73.2,64.0,29.60,West,267,10.4,10.4,73,0.00,FEW,,0.92,76.0,WeatherDisplay:10.37,2013-09-30 15:58:00,
2013-09-30 18:00:00,73.1,63.9,29.60,West,276,15.0,15.0,73,0.00,FEW,,0.92,76.0,WeatherDisplay:10.37,2013-09-30 16:00:00,
2013-09-30 18:01:00,73.0,63.8,29.60,SSW,213,11.5,11.5,73,0.00,FEW,,0.92,76.0,WeatherDisplay:10.37,2013-09-30 16:01:00,
2013-09-30 18:02:00,73.0,63.8,29.60,West,259,12.0,12.0,73,0.00,FEW,,0.92,84.0,WeatherDisplay:10.37,2013-09-30 16:02:00,
2013-09-30 18:03:00,73.0,63.8,29.60,WSW,250,12.7,12.7,73,0.00,FEW,,0.92,86.0,WeatherDisplay:10.37,2013-09-30 16:03:00,
2013-09-30 18:05:00,72.9,63.7,29.60,WSW,238,11.0,11.0,73,0.00,FEW,,0.92,93.0,WeatherDisplay:10.37,2013-09-30 16:05:00,
2013-09-30 18:06:00,72.9,63.7,29.60,WSW,248,11.5,11.5,73,0.00,FEW,,0.92,93.0,WeatherDisplay:10.37,2013-09-30 16:06:00,
2013-09-30 18:07:00,72.9,63.7,29.60,WSW,248,12.0,12.0,73,0.00,FEW,,0.92,93.0,WeatherDisplay:10.37,2013-09-30 16:07:00,
2013-09-30 18:08:00,72.9,64.1,29.60,SW,233,11.5,11.5,74,0.00,FEW,,0.92,93.0,WeatherDisplay:10.37,2013-09-30 16:08:00,
2013-09-30 18:09:00,72.8,64.0,29.60,West,260,11.5,11.5,74,0.00,FEW,,0.92,93.0,WeatherDisplay:10.37,2013-09-30 16:09:00,
2013-09-30 18:11:00,72.8,64.0,29.61,WSW,252,8.1,8.1,74,0.00,FEW,,0.92,83.0,WeatherDisplay:10.37,2013-09-30 16:11:00,
2013-09-30 18:12:00,72.8,64.0,29.61,WSW,249,11.0,11.0,74,0.00,FEW,,0.92,83.0,WeatherDisplay:10.37,2013-09-30 16:12:00,
2013-09-30 18:13:00,72.8,64.0,29.61,WSW,250,12.0,12.0,74,0.00,FEW,,0.92,83.0,WeatherDisplay:10.37,2013-09-30 16:13:00,
2013-09-30 18:14:00,72.8,64.0,29.61,WSW,254,11.5,11.5,74,0.00,FEW,,0.92,84.0,WeatherDisplay:10.37,2013-09-30 16:14:00,
2013-09-30 18:16:00,72.7,63.9,29.61,WSW,254,10.4,10.4,74,0.00,FEW,,0.92,84.0,WeatherDisplay:10.37,2013-09-30 16:16:00,
2013-09-30 18:17:00,72.7,63.9,29.61,West,277,10.4,10.4,74,0.00,FEW,,0.92,83.0,WeatherDisplay:10.37,2013-09-30 16:17:00,
2013-09-30 18:18:00,72.7,63.9,29.61,WSW,254,5.8,5.8,74,0.00,FEW,,0.92,83.0,WeatherDisplay:10.37,2013-09-30 16:18:00,
2013-09-30 18:19:00,72.7,64.3,29.61,WSW,256,11.5,11.5,75,0.00,FEW,,0.92,77.0,WeatherDisplay:10.37,2013-09-30 16:19:00,
2013-09-30 18:21:00,72.6,64.2,29.60,West,273,9.2,9.2,75,0.00,FEW,,0.92,76.0,WeatherDisplay:10.37,2013-09-30 16:21:00,
2013-09-30 18:23:00,72.6,64.2,29.61,WSW,257,11.5,11.5,75,0.00,FEW,,0.92,84.0,WeatherDisplay:10.37,2013-09-30 16:23:00,
2013-09-30 18:24:00,72.6,64.6,29.61,WSW,258,11.5,11.5,76,0.00,FEW,,0.92,93.0,WeatherDisplay:10.37,2013-09-30 16:24:00,
2013-09-30 18:26:00,72.6,64.6,29.61,WSW,250,11.5,11.5,76,0.00,FEW,,0.92,93.0,WeatherDisplay:10.37,2013-09-30 16:26:00,
2013-09-30 18:28:00,72.6,64.6,29.61,West,269,11.5,11.5,76,0.00,FEW,,0.92,93.0,WeatherDisplay:10.37,2013-09-30 16:28:00,
2013-09-30 18:29:00,72.6,64.6,29.61,West,275,13.0,13.0,76,0.00,FEW,,0.92,93.0,WeatherDisplay:10.37,2013-09-30 16:29:00,
2013-09-30 18:31:00,72.5,64.5,29.61,WSW,254,12.7,12.7,76,0.00,FEW,,0.92,79.0,WeatherDisplay:10.37,2013-09-30 16:31:00,
2013-09-30 18:33:00,72.5,64.5,29.61,West,265,11.5,11.5,76,0.00,FEW,,0.92,84.0,WeatherDisplay:10.37,2013-09-30 16:33:00,
2013-09-30 18:35:00,72.5,64.9,29.61,WSW,246,11.5,11.5,77,0.00,FEW,,0.92,79.0,WeatherDisplay:10.37,2013-09-30 16:35:00,
2013-09-30 18:36:00,72.5,64.9,29.61,West,265,8.1,8.1,77,0.00,FEW,,0.92,79.0,WeatherDisplay:10.37,2013-09-30 16:36:00,
2013-09-30 18:37:00,72.4,64.8,29.61,WSW,257,10.4,10.4,77,0.00,FEW,,0.92,79.0,WeatherDisplay:10.37,2013-09-30 16:37:00,
2013-09-30 18:38:00,72.4,64.8,29.61,West,267,10.4,10.4,77,0.00,FEW,,0.92,62.0,WeatherDisplay:10.37,2013-09-30 16:38:00,
2013-09-30 18:40:00,72.4,64.8,29.61,WSW,252,13.0,13.0,77,0.00,FEW,,0.92,51.0,WeatherDisplay:10.37,2013-09-30 16:40:00,
2013-09-30 18:41:00,72.3,64.7,29.61,WSW,254,12.7,12.7,77,0.00,FEW,,0.92,47.0,WeatherDisplay:10.37,2013-09-30 16:41:00,
2013-09-30 18:42:00,72.3,64.7,29.61,WSW,238,10.4,10.4,77,0.00,FEW,,0.92,44.0,WeatherDisplay:10.37,2013-09-30 16:42:00,
2013-09-30 18:43:00,72.3,64.7,29.61,WSW,257,8.1,8.1,77,0.00,FEW,,0.92,44.0,WeatherDisplay:10.37,2013-09-30 16:43:00,
2013-09-30 18:45:00,72.3,64.7,29.62,WSW,253,8.1,8.1,77,0.00,FEW,,0.92,35.0,WeatherDisplay:10.37,2013-09-30 16:45:00,
2013-09-30 18:46:00,72.2,64.6,29.61,WSW,246,9.2,9.2,77,0.00,FEW,,0.92,30.0,WeatherDisplay:10.37,2013-09-30 16:46:00,
2013-09-30 18:49:00,72.1,64.5,29.61,WSW,256,8.1,8.1,77,0.00,FEW,,0.92,23.0,WeatherDisplay:10.37,2013-09-30 16:49:00,
2013-09-30 18:51:00,72.1,64.5,29.61,West,267,11.5,11.5,77,0.00,FEW,,0.92,23.0,WeatherDisplay:10.37,2013-09-30 16:51:00,
2013-09-30 18:52:00,72.0,64.4,29.61,SW,231,11.5,11.5,77,0.00,FEW,,0.92,23.0,WeatherDisplay:10.37,2013-09-30 16:52:00,
2013-09-30 18:54:00,71.9,64.3,29.61,WSW,241,12.7,12.7,77,0.00,FEW,,0.92,12.0,WeatherDisplay:10.37,2013-09-30 16:54:00,
2013-09-30 18:56:00,71.9,64.3,29.61,WSW,242,10.4,10.4,77,0.00,FEW,,0.92,11.0,WeatherDisplay:10.37,2013-09-30 16:56:00,
2013-09-30 18:57:00,71.8,64.2,29.61,WSW,244,10.4,10.4,77,0.00,FEW,,0.92,11.0,WeatherDisplay:10.37,2013-09-30 16:57:00,
2013-09-30 18:59:00,71.8,64.6,29.61,WSW,256,9.2,9.2,78,0.00,FEW,,0.92,0.0,WeatherDisplay:10.37,2013-09-30 16:59:00,
2013-09-30 19:01:00,71.7,64.5,29.61,SW,231,4.6,4.6,78,0.00,FEW,,0.92,0.0,WeatherDisplay:10.37,2013-09-30 17:01:00,
2013-09-30 19:02:00,71.7,64.5,29.61,West,269,4.6,4.6,78,0.00,FEW,,0.92,0.0,WeatherDisplay:10.37,2013-09-30 17:02:00,
2013-09-30 19:04:00,71.7,64.5,29.61,West,259,5.8,5.8,78,0.00,FEW,,0.92,0.0,WeatherDisplay:10.37,2013-09-30 17:04:00,
2013-09-30 19:06:00,71.6,64.4,29.61,WSW,239,3.5,3.5,78,0.00,FEW,,0.92,0.0,WeatherDisplay:10.37,2013-09-30 17:06:00,
2013-09-30 19:07:00,71.6,64.4,29.61,WSW,244,3.0,3.0,78,0.00,FEW,,0.92,0.0,WeatherDisplay:10.37,2013-09-30 17:07:00,
2013-09-30 19:09:00,71.5,64.3,29.61,WSW,243,3.5,3.5,78,0.00,FEW,,0.92,0.0,WeatherDisplay:10.37,2013-09-30 17:09:00,
2013-09-30 19:10:00,71.5,64.3,29.61,WSW,255,4.6,4.6,78,0.00,FEW,,0.92,0.0,WeatherDisplay:10.37,2013-09-30 17:10:00,
2013-09-30 19:11:00,71.5,64.3,29.61,WSW,257,5.8,5.8,78,0.00,FEW,,0.92,0.0,WeatherDisplay:10.37,2013-09-30 17:11:00,
2013-09-30 19:12:00,71.4,64.2,29.61,West,265,5.8,5.8,78,0.00,FEW,,0.92,0.0,WeatherDisplay:10.37,2013-09-30 17:12:00,
2013-09-30 19:14:00,71.4,64.2,29.61,WSW,239,4.6,4.6,78,0.00,FEW,,0.92,0.0,WeatherDisplay:10.37,2013-09-30 17:14:00,
2013-09-30 19:15:00,71.4,64.5,29.61,SW,236,4.6,4.6,79,0.00,FEW,,0.92,0.0,WeatherDisplay:10.37,2013-09-30 17:15:00,
2013-09-30 19:17:00,71.3,64.4,29.61,WSW,239,4.6,4.6,79,0.00,FEW,,0.92,0.0,WeatherDisplay:10.37,2013-09-30 17:17:00,
2013-09-30 19:20:00,71.2,64.4,29.61,SW,222,0.0,0.0,79,0.00,FEW,,0.92,0.0,WeatherDisplay:10.37,2013-09-30 17:20:00,
2013-09-30 19:21:00,71.2,64.4,29.61,SSW,211,0.0,0.0,79,0.00,FEW,,0.92,0.0,WeatherDisplay:10.37,2013-09-30 17:21:00,
2013-09-30 19:22:00,71.2,64.4,29.61,SW,218,0.0,0.0,79,0.00,FEW,,0.92,0.0,WeatherDisplay:10.37,2013-09-30 17:22:00,
2013-09-30 19:25:00,71.1,64.3,29.61,SW,236,1.2,1.2,79,0.00,FEW,,0.92,0.0,WeatherDisplay:10.37,2013-09-30 17:25:00,
2013-09-30 19:26:00,71.1,64.3,29.61,SW,222,4.0,4.0,79,0.00,FEW,,0.92,0.0,WeatherDisplay:10.37,2013-09-30 17:26:00,
2013-09-30 19:27:00,71.1,64.3,29.61,SW,215,3.5,3.5,79,0.00,FEW,,0.92,0.0,WeatherDisplay:10.37,2013-09-30 17:27:00,
2013-09-30 19:28:00,71.0,64.5,29.62,SSW,208,3.5,3.5,80,0.00,FEW,,0.92,0.0,WeatherDisplay:10.37,2013-09-30 17:28:00,
2013-09-30 19:30:00,70.9,64.4,29.62,SSW,209,3.5,3.5,80,0.00,FEW,,0.92,0.0,WeatherDisplay:10.37,2013-09-30 17:30:00,
2013-09-30 19:31:00,70.9,64.4,29.61,SSW,200,4.0,4.0,80,0.00,FEW,,0.92,0.0,WeatherDisplay:10.37,2013-09-30 17:31:00,
2013-09-30 19:32:00,70.9,64.4,29.62,SSW,207,4.0,4.0,80,0.00,FEW,,0.92,0.0,WeatherDisplay:10.37,2013-09-30 17:32:00,
2013-09-30 19:33:00,70.9,64.4,29.61,SW,228,4.6,4.6,80,0.00,FEW,,0.92,0.0,WeatherDisplay:10.37,2013-09-30 17:33:00,
2013-09-30 19:35:00,70.7,64.2,29.62,SW,216,4.0,4.0,80,0.00,FEW,,0.92,0.0,WeatherDisplay:10.37,2013-09-30 17:35:00,
2013-09-30 19:36:00,70.7,64.2,29.62,SW,221,4.0,4.0,80,0.00,FEW,,0.92,0.0,WeatherDisplay:10.37,2013-09-30 17:36:00,
2013-09-30 19:37:00,70.7,64.2,29.62,SW,231,4.6,4.6,80,0.00,FEW,,0.92,0.0,WeatherDisplay:10.37,2013-09-30 17:37:00,
2013-09-30 19:38:00,70.7,64.2,29.62,WSW,240,3.5,3.5,80,0.00,FEW,,0.92,0.0,WeatherDisplay:10.37,2013-09-30 17:38:00,
2013-09-30 19:40:00,70.6,64.1,29.61,SW,224,3.5,3.5,80,0.00,FEW,,0.92,0.0,WeatherDisplay:10.37,2013-09-30 17:40:00,
2013-09-30 19:42:00,70.6,64.5,29.62,SW,229,0.0,0.0,81,0.00,FEW,,0.92,0.0,WeatherDisplay:10.37,2013-09-30 17:42:00,
2013-09-30 19:44:00,70.5,64.4,29.62,SW,221,4.0,4.0,81,0.00,FEW,,0.92,0.0,WeatherDisplay:10.37,2013-09-30 17:44:00,
2013-09-30 19:45:00,70.5,64.4,29.62,SW,221,5.8,5.8,81,0.00,FEW,,0.92,0.0,WeatherDisplay:10.37,2013-09-30 17:45:00,
2013-09-30 19:47:00,70.5,64.4,29.62,SSW,211,3.5,3.5,81,0.00,FEW,,0.92,0.0,WeatherDisplay:10.37,2013-09-30 17:47:00,
2013-09-30 19:48:00,70.4,64.3,29.62,SW,234,1.2,0.0,81,0.00,FEW,,0.92,0.0,WeatherDisplay:10.37,2013-09-30 17:48:00,
2013-09-30 19:50:00,70.4,64.3,29.62,SSW,211,0.0,0.0,81,0.00,FEW,,0.92,0.0,WeatherDisplay:10.37,2013-09-30 17:50:00,
2013-09-30 19:52:00,70.3,64.2,29.62,SW,219,0.0,0.0,81,0.00,FEW,,0.92,0.0,WeatherDisplay:10.37,2013-09-30 17:52:00,
2013-09-30 19:53:00,70.3,64.2,29.62,SSW,211,0.0,0.0,81,0.00,FEW,,0.92,0.0,WeatherDisplay:10.37,2013-09-30 17:53:00,
2013-09-30 19:56:00,70.2,64.1,29.62,SSW,211,0.0,0.0,81,0.00,FEW,,0.92,0.0,WeatherDisplay:10.37,2013-09-30 17:56:00,
2013-09-30 19:57:00,70.2,64.1,29.62,SSW,205,0.0,0.0,81,0.00,FEW,,0.92,0.0,WeatherDisplay:10.37,2013-09-30 17:57:00,
2013-09-30 19:58:00,70.2,64.1,29.62,WSW,242,4.0,4.0,81,0.00,FEW,,0.92,0.0,WeatherDisplay:10.37,2013-09-30 17:58:00,
2013-09-30 20:01:00,70.1,64.3,29.62,SSW,204,0.0,0.0,82,0.00,FEW,,0.92,0.0,WeatherDisplay:10.37,2013-09-30 18:01:00,
2013-09-30 20:02:00,70.1,64.3,29.62,SSW,204,0.0,0.0,82,0.00,FEW,,0.92,0.0,WeatherDisplay:10.37,2013-09-30 18:02:00,
2013-09-30 20:03:00,70.1,64.3,29.62,SW,217,0.0,0.0,82,0.00,FEW,,0.92,0.0,WeatherDisplay:10.37,2013-09-30 18:03:00,
2013-09-30 20:06:00,70.0,64.2,29.62,SW,214,0.0,0.0,82,0.00,FEW,,0.92,0.0,WeatherDisplay:10.37,2013-09-30 18:06:00,
2013-09-30 20:07:00,70.0,64.2,29.62,SW,214,0.0,0.0,82,0.00,FEW,,0.92,0.0,WeatherDisplay:10.37,2013-09-30 18:07:00,
2013-09-30 20:08:00,70.0,64.2,29.62,SW,214,0.0,0.0,82,0.00,FEW,,0.92,0.0,WeatherDisplay:10.37,2013-09-30 18:08:00,
2013-09-30 20:11:00,69.9,64.2,29.62,SW,228,0.0,0.0,82,0.00,FEW,,0.92,0.0,WeatherDisplay:10.37,2013-09-30 18:11:00,
2013-09-30 20:13:00,69.9,64.2,29.62,SW,228,0.0,0.0,82,0.00,FEW,,0.92,0.0,WeatherDisplay:10.37,2013-09-30 18:13:00,
2013-09-30 20:14:00,69.9,64.2,29.62,SW,218,4.0,4.0,82,0.00,FEW,,0.92,0.0,WeatherDisplay:10.37,2013-09-30 18:14:00,
2013-09-30 20:16:00,69.8,64.1,29.62,SW,232,3.5,3.5,82,0.00,FEW,,0.92,0.0,WeatherDisplay:10.37,2013-09-30 18:16:00,
2013-09-30 20:18:00,69.8,64.4,29.62,SW,235,3.5,3.5,83,0.00,FEW,,0.92,0.0,WeatherDisplay:10.37,2013-09-30 18:18:00,
2013-09-30 20:19:00,69.8,64.4,29.62,SW,227,3.5,3.5,83,0.00,FEW,,0.92,0.0,WeatherDisplay:10.37,2013-09-30 18:19:00,
2013-09-30 20:22:00,69.7,64.3,29.62,SW,232,1.2,0.0,83,0.00,FEW,,0.92,0.0,WeatherDisplay:10.37,2013-09-30 18:22:00,
2013-09-30 20:23:00,69.7,64.3,29.62,SW,235,0.0,0.0,83,0.00,FEW,,0.92,0.0,WeatherDisplay:10.37,2013-09-30 18:23:00,
2013-09-30 20:24:00,69.7,64.3,29.62,SW,235,0.0,0.0,83,0.00,FEW,,0.92,0.0,WeatherDisplay:10.37,2013-09-30 18:24:00,
2013-09-30 20:27:00,69.6,64.2,29.62,SW,235,0.0,0.0,83,0.00,FEW,,0.92,0.0,WeatherDisplay:10.37,2013-09-30 18:27:00,
2013-09-30 20:28:00,69.6,64.2,29.62,SSW,213,2.3,2.3,83,0.00,FEW,,0.92,0.0,WeatherDisplay:10.37,2013-09-30 18:28:00,
2013-09-30 20:29:00,69.6,64.2,29.62,SW,215,3.0,3.0,83,0.00,FEW,,0.92,0.0,WeatherDisplay:10.37,2013-09-30 18:29:00,
2013-09-30 20:30:00,69.6,64.2,29.62,SW,215,3.5,3.5,83,0.00,FEW,,0.92,0.0,WeatherDisplay:10.37,2013-09-30 18:30:00,
2013-09-30 20:32:00,69.6,64.2,29.62,SW,224,1.2,0.0,83,0.00,FEW,,0.92,0.0,WeatherDisplay:10.37,2013-09-30 18:32:00,
2013-09-30 20:34:00,69.6,64.2,29.63,SW,229,0.0,0.0,83,0.00,FEW,,0.92,0.0,WeatherDisplay:10.37,2013-09-30 18:34:00,
2013-09-30 20:35:00,69.5,64.1,29.63,SW,229,0.0,0.0,83,0.00,FEW,,0.92,0.0,WeatherDisplay:10.37,2013-09-30 18:35:00,
2013-09-30 20:36:00,69.5,64.1,29.63,SW,229,0.0,0.0,83,0.00,FEW,,0.92,0.0,WeatherDisplay:10.37,2013-09-30 18:36:00,
2013-09-30 20:37:00,69.5,64.1,29.63,SW,232,3.5,3.5,83,0.00,FEW,,0.92,0.0,WeatherDisplay:10.37,2013-09-30 18:37:00,
2013-09-30 20:40:00,69.5,64.1,29.63,SW,229,0.0,0.0,83,0.00,FEW,,0.92,0.0,WeatherDisplay:10.37,2013-09-30 18:40:00,
2013-09-30 20:41:00,69.5,64.1,29.63,SW,229,0.0,0.0,83,0.00,FEW,,0.92,0.0,WeatherDisplay:10.37,2013-09-30 18:41:00,
2013-09-30 20:42:00,69.5,64.1,29.63,SW,229,0.0,0.0,83,0.00,FEW,,0.92,0.0,WeatherDisplay:10.37,2013-09-30 18:42:00,
2013-09-30 20:46:00,69.5,64.1,29.63,SW,229,0.0,0.0,83,0.00,FEW,,0.92,0.0,WeatherDisplay:10.37,2013-09-30 18:46:00,
2013-09-30 20:47:00,69.5,64.1,29.64,SW,229,0.0,0.0,83,0.00,FEW,,0.92,0.0,WeatherDisplay:10.37,2013-09-30 18:47:00,
2013-09-30 20:48:00,69.5,64.1,29.64,SW,229,0.0,0.0,83,0.00,FEW,,0.92,0.0,WeatherDisplay:10.37,2013-09-30 18:48:00,
2013-09-30 20:51:00,69.4,64.0,29.63,SW,229,0.0,0.0,83,0.00,FEW,,0.92,0.0,WeatherDisplay:10.37,2013-09-30 18:51:00,
2013-09-30 20:52:00,69.4,64.0,29.63,SW,229,0.0,0.0,83,0.00,FEW,,0.92,0.0,WeatherDisplay:10.37,2013-09-30 18:52:00,
2013-09-30 20:53:00,69.4,64.4,29.63,SW,229,0.0,0.0,84,0.00,FEW,,0.92,0.0,WeatherDisplay:10.37,2013-09-30 18:53:00,
2013-09-30 20:56:00,69.4,64.4,29.63,SW,229,0.0,0.0,84,0.00,FEW,,0.92,0.0,WeatherDisplay:10.37,2013-09-30 18:56:00,
2013-09-30 20:57:00,69.4,64.4,29.64,SW,229,0.0,0.0,84,0.00,FEW,,0.92,0.0,WeatherDisplay:10.37,2013-09-30 18:57:00,
2013-09-30 20:58:00,69.4,64.4,29.64,SW,229,0.0,0.0,84,0.00,FEW,,0.92,0.0,WeatherDisplay:10.37,2013-09-30 18:58:00,
2013-09-30 21:01:00,69.3,64.3,29.63,SW,229,0.0,0.0,84,0.00,FEW,,0.92,0.0,WeatherDisplay:10.37,2013-09-30 19:01:00,
2013-09-30 21:02:00,69.3,64.3,29.63,SW,229,0.0,0.0,84,0.00,FEW,,0.92,0.0,WeatherDisplay:10.37,2013-09-30 19:02:00,
2013-09-30 21:03:00,69.3,64.3,29.63,SW,229,0.0,0.0,84,0.00,FEW,,0.92,0.0,WeatherDisplay:10.37,2013-09-30 19:03:00,
2013-09-30 21:04:00,69.2,64.2,29.63,SW,229,0.0,0.0,84,0.00,FEW,,0.92,0.0,WeatherDisplay:10.37,2013-09-30 19:04:00,
2013-09-30 21:06:00,69.2,64.2,29.63,SW,229,0.0,0.0,84,0.00,FEW,,0.92,0.0,WeatherDisplay:10.37,2013-09-30 19:06:00,
2013-09-30 21:07:00,69.2,64.2,29.63,SW,229,0.0,0.0,84,0.00,FEW,,0.92,0.0,WeatherDisplay:10.37,2013-09-30 19:07:00,
2013-09-30 21:08:00,69.2,64.2,29.63,SW,229,0.0,0.0,84,0.00,FEW,,0.92,0.0,WeatherDisplay:10.37,2013-09-30 19:08:00,
2013-09-30 21:10:00,69.1,64.1,29.64,SW,229,0.0,0.0,84,0.00,FEW,,0.92,0.0,WeatherDisplay:10.37,2013-09-30 19:10:00,
2013-09-30 21:11:00,69.1,64.1,29.64,SW,229,0.0,0.0,84,0.00,FEW,,0.92,0.0,WeatherDisplay:10.37,2013-09-30 19:11:00,
2013-09-30 21:12:00,69.1,64.1,29.63,SW,229,0.0,0.0,84,0.00,FEW,,0.92,0.0,WeatherDisplay:10.37,2013-09-30 19:12:00,
2013-09-30 21:13:00,69.1,64.1,29.64,SW,229,0.0,0.0,84,0.00,FEW,,0.92,0.0,WeatherDisplay:10.37,2013-09-30 19:13:00,
2013-09-30 21:15:00,69.1,64.1,29.63,SW,229,0.0,0.0,84,0.00,FEW,,0.92,0.0,WeatherDisplay:10.37,2013-09-30 19:15:00,
2013-09-30 21:16:00,69.0,64.0,29.63,SW,229,0.0,0.0,84,0.00,FEW,,0.92,0.0,WeatherDisplay:10.37,2013-09-30 19:16:00,
2013-09-30 21:18:00,68.9,63.9,29.63,SW,229,0.0,0.0,84,0.00,FEW,,0.92,0.0,WeatherDisplay:10.37,2013-09-30 19:18:00,
2013-09-30 21:19:00,68.9,63.9,29.63,SW,229,0.0,0.0,84,0.00,FEW,,0.92,0.0,WeatherDisplay:10.37,2013-09-30 19:19:00,
2013-09-30 21:20:00,68.9,63.9,29.63,SW,229,0.0,0.0,84,0.00,FEW,,0.92,0.0,WeatherDisplay:10.37,2013-09-30 19:20:00,
2013-09-30 21:21:00,68.9,63.9,29.63,SW,229,0.0,0.0,84,0.00,FEW,,0.92,0.0,WeatherDisplay:10.37,2013-09-30 19:21:00,
2013-09-30 21:23:00,68.9,63.9,29.63,SW,229,0.0,0.0,84,0.00,FEW,,0.92,0.0,WeatherDisplay:10.37,2013-09-30 19:23:00,
2013-09-30 21:24:00,68.9,63.9,29.63,SW,229,0.0,0.0,84,0.00,FEW,,0.92,0.0,WeatherDisplay:10.37,2013-09-30 19:24:00,
2013-09-30 21:25:00,68.8,63.8,29.63,SW,229,0.0,0.0,84,0.00,FEW,,0.92,0.0,WeatherDisplay:10.37,2013-09-30 19:25:00,
2013-09-30 21:26:00,68.8,63.8,29.63,SW,229,0.0,0.0,84,0.00,FEW,,0.92,0.0,WeatherDisplay:10.37,2013-09-30 19:26:00,
2013-09-30 21:28:00,68.8,63.8,29.63,SW,229,0.0,0.0,84,0.00,FEW,,0.92,0.0,WeatherDisplay:10.37,2013-09-30 19:28:00,
2013-09-30 21:29:00,68.8,63.8,29.63,SW,229,0.0,0.0,84,0.00,FEW,,0.92,0.0,WeatherDisplay:10.37,2013-09-30 19:29:00,
2013-09-30 21:31:00,68.8,64.1,29.63,SW,229,0.0,0.0,85,0.00,FEW,,0.92,0.0,WeatherDisplay:10.37,2013-09-30 19:31:00,
2013-09-30 21:34:00,68.7,64.0,29.63,SW,229,0.0,0.0,85,0.00,FEW,,0.92,0.0,WeatherDisplay:10.37,2013-09-30 19:34:00,
2013-09-30 21:35:00,68.7,64.0,29.63,SW,229,0.0,0.0,85,0.00,FEW,,0.92,0.0,WeatherDisplay:10.37,2013-09-30 19:35:00,
2013-09-30 21:37:00,68.7,64.0,29.63,SW,229,0.0,0.0,85,0.00,FEW,,0.92,0.0,WeatherDisplay:10.37,2013-09-30 19:37:00,
2013-09-30 21:39:00,68.7,64.0,29.64,SW,229,0.0,0.0,85,0.00,FEW,,0.92,0.0,WeatherDisplay:10.37,2013-09-30 19:39:00,
2013-09-30 21:40:00,68.6,63.9,29.64,SW,229,0.0,0.0,85,0.00,FEW,,0.92,0.0,WeatherDisplay:10.37,2013-09-30 19:40:00,
2013-09-30 21:42:00,68.6,63.9,29.63,SW,229,0.0,0.0,85,0.00,FEW,,0.92,0.0,WeatherDisplay:10.37,2013-09-30 19:42:00,
2013-09-30 21:43:00,68.6,63.9,29.64,SW,229,0.0,0.0,85,0.00,FEW,,0.92,0.0,WeatherDisplay:10.37,2013-09-30 19:43:00,
2013-09-30 21:44:00,68.5,63.8,29.64,SW,229,0.0,0.0,85,0.00,FEW,,0.92,0.0,WeatherDisplay:10.37,2013-09-30 19:44:00,
2013-09-30 21:45:00,68.5,63.8,29.63,SW,229,0.0,0.0,85,0.00,FEW,,0.92,0.0,WeatherDisplay:10.37,2013-09-30 19:45:00,
2013-09-30 21:47:00,68.5,63.8,29.63,SW,229,0.0,0.0,85,0.00,FEW,,0.92,0.0,WeatherDisplay:10.37,2013-09-30 19:47:00,
2013-09-30 21:49:00,68.4,63.7,29.63,South,191,2.3,2.3,85,0.00,FEW,,0.92,0.0,WeatherDisplay:10.37,2013-09-30 19:49:00,
2013-09-30 21:50:00,68.4,63.7,29.63,South,191,2.3,2.3,85,0.00,FEW,,0.92,0.0,WeatherDisplay:10.37,2013-09-30 19:50:00,
2013-09-30 21:51:00,68.4,63.7,29.63,South,191,3.5,3.5,85,0.00,FEW,,0.92,0.0,WeatherDisplay:10.37,2013-09-30 19:51:00,
2013-09-30 21:52:00,68.3,63.6,29.64,SSW,203,0.0,0.0,85,0.00,FEW,,0.92,0.0,WeatherDisplay:10.37,2013-09-30 19:52:00,
2013-09-30 21:55:00,68.3,63.6,29.64,SSW,211,3.5,3.5,85,0.00,FEW,,0.92,0.0,WeatherDisplay:10.37,2013-09-30 19:55:00,
2013-09-30 21:56:00,68.3,63.6,29.64,SSW,192,3.5,3.5,85,0.00,FEW,,0.92,0.0,WeatherDisplay:10.37,2013-09-30 19:56:00,
2013-09-30 21:57:00,68.3,63.6,29.64,SSW,192,2.3,0.0,85,0.00,FEW,,0.92,0.0,WeatherDisplay:10.37,2013-09-30 19:57:00,
2013-09-30 22:01:00,68.2,63.5,29.64,South,190,3.5,3.5,85,0.00,FEW,,0.92,0.0,WeatherDisplay:10.37,2013-09-30 20:01:00,
2013-09-30 22:02:00,68.2,63.5,29.64,SSW,213,2.3,2.3,85,0.00,FEW,,0.92,0.0,WeatherDisplay:10.37,2013-09-30 20:02:00,
2013-09-30 22:03:00,68.2,63.5,29.64,SSW,211,3.5,3.5,85,0.00,FEW,,0.92,0.0,WeatherDisplay:10.37,2013-09-30 20:03:00,
2013-09-30 22:06:00,68.2,63.9,29.64,SSW,198,3.0,3.0,86,0.00,FEW,,0.92,0.0,WeatherDisplay:10.37,2013-09-30 20:06:00,
2013-09-30 22:07:00,68.2,63.9,29.64,SSW,200,4.6,4.6,86,0.00,FEW,,0.92,0.0,WeatherDisplay:10.37,2013-09-30 20:07:00,
2013-09-30 22:08:00,68.2,63.9,29.64,South,190,4.6,4.6,86,0.00,FEW,,0.92,0.0,WeatherDisplay:10.37,2013-09-30 20:08:00,
2013-09-30 22:11:00,68.2,63.9,29.64,SSW,209,0.0,0.0,86,0.00,FEW,,0.92,0.0,WeatherDisplay:10.37,2013-09-30 20:11:00,
2013-09-30 22:12:00,68.2,63.9,29.64,SSW,209,0.0,0.0,86,0.00,FEW,,0.92,0.0,WeatherDisplay:10.37,2013-09-30 20:12:00,
2013-09-30 22:13:00,68.2,63.9,29.64,SW,218,0.0,0.0,86,0.00,FEW,,0.92,0.0,WeatherDisplay:10.37,2013-09-30 20:13:00,
2013-09-30 22:17:00,68.1,63.8,29.64,North,350,0.0,0.0,86,0.00,FEW,,0.92,0.0,WeatherDisplay:10.37,2013-09-30 20:17:00,
2013-09-30 22:18:00,68.1,63.8,29.64,North,350,0.0,0.0,86,0.00,FEW,,0.92,0.0,WeatherDisplay:10.37,2013-09-30 20:18:00,
2013-09-30 22:19:00,68.1,63.8,29.64,North,350,0.0,0.0,86,0.00,FEW,,0.92,0.0,WeatherDisplay:10.37,2013-09-30 20:19:00,
2013-09-30 22:22:00,68.0,63.7,29.64,North,350,0.0,0.0,86,0.00,FEW,,0.92,0.0,WeatherDisplay:10.37,2013-09-30 20:22:00,
2013-09-30 22:23:00,68.0,63.7,29.65,North,350,0.0,0.0,86,0.00,FEW,,0.92,0.0,WeatherDisplay:10.37,2013-09-30 20:23:00,
2013-09-30 22:24:00,68.0,63.7,29.64,North,350,0.0,0.0,86,0.00,FEW,,0.92,0.0,WeatherDisplay:10.37,2013-09-30 20:24:00,
2013-09-30 22:28:00,68.0,63.7,29.65,North,350,0.0,0.0,86,0.00,FEW,,0.92,0.0,WeatherDisplay:10.37,2013-09-30 20:28:00,
2013-09-30 22:29:00,68.0,63.7,29.64,North,350,0.0,0.0,86,0.00,FEW,,0.92,0.0,WeatherDisplay:10.37,2013-09-30 20:29:00,
2013-09-30 22:33:00,67.9,63.6,29.64,North,350,0.0,0.0,86,0.00,FEW,,0.92,0.0,WeatherDisplay:10.37,2013-09-30 20:33:00,
2013-09-30 22:34:00,67.9,63.6,29.64,North,350,0.0,0.0,86,0.00,FEW,,0.92,0.0,WeatherDisplay:10.37,2013-09-30 20:34:00,
2013-09-30 22:35:00,67.9,63.6,29.64,North,350,0.0,0.0,86,0.00,FEW,,0.92,0.0,WeatherDisplay:10.37,2013-09-30 20:35:00,
2013-09-30 22:38:00,67.9,63.6,29.64,North,350,0.0,0.0,86,0.00,FEW,,0.92,0.0,WeatherDisplay:10.37,2013-09-30 20:38:00,
2013-09-30 22:39:00,67.9,63.6,29.64,North,350,0.0,0.0,86,0.00,FEW,,0.92,0.0,WeatherDisplay:10.37,2013-09-30 20:39:00,
2013-09-30 22:40:00,67.9,63.6,29.64,North,350,0.0,0.0,86,0.00,FEW,,0.92,0.0,WeatherDisplay:10.37,2013-09-30 20:40:00,
2013-09-30 22:44:00,67.8,63.5,29.65,North,350,0.0,0.0,86,0.00,FEW,,0.92,0.0,WeatherDisplay:10.37,2013-09-30 20:44:00,
2013-09-30 22:46:00,67.8,63.5,29.65,North,350,0.0,0.0,86,0.00,FEW,,0.92,0.0,WeatherDisplay:10.37,2013-09-30 20:46:00,
2013-09-30 22:49:00,67.8,63.5,29.65,North,350,0.0,0.0,86,0.00,FEW,,0.92,0.0,WeatherDisplay:10.37,2013-09-30 20:49:00,
2013-09-30 22:51:00,67.8,63.5,29.65,North,350,0.0,0.0,86,0.00,FEW,,0.92,0.0,WeatherDisplay:10.37,2013-09-30 20:51:00,
2013-09-30 22:52:00,67.8,63.5,29.65,North,350,0.0,0.0,86,0.00,FEW,,0.92,0.0,WeatherDisplay:10.37,2013-09-30 20:52:00,
2013-09-30 22:54:00,67.8,63.5,29.64,North,350,0.0,0.0,86,0.00,FEW,,0.92,0.0,WeatherDisplay:10.37,2013-09-30 20:54:00,
2013-09-30 22:55:00,67.8,63.5,29.64,North,350,0.0,0.0,86,0.00,FEW,,0.92,0.0,WeatherDisplay:10.37,2013-09-30 20:55:00,
2013-09-30 22:56:00,67.7,63.4,29.64,North,350,0.0,0.0,86,0.00,FEW,,0.92,0.0,WeatherDisplay:10.37,2013-09-30 20:56:00,
2013-09-30 22:57:00,67.7,63.4,29.64,North,350,0.0,0.0,86,0.00,FEW,,0.92,0.0,WeatherDisplay:10.37,2013-09-30 20:57:00,
2013-09-30 22:58:00,67.7,63.4,29.64,North,350,0.0,0.0,86,0.00,FEW,,0.92,0.0,WeatherDisplay:10.37,2013-09-30 20:58:00,
2013-09-30 22:59:00,67.7,63.4,29.64,North,350,0.0,0.0,86,0.00,FEW,,0.92,0.0,WeatherDisplay:10.37,2013-09-30 20:59:00,
2013-09-30 23:01:00,67.7,63.7,29.64,North,350,0.0,0.0,87,0.00,FEW,,0.92,0.0,WeatherDisplay:10.37,2013-09-30 21:01:00,
2013-09-30 23:02:00,67.7,63.7,29.64,North,350,0.0,0.0,87,0.00,FEW,,0.92,0.0,WeatherDisplay:10.37,2013-09-30 21:02:00,
2013-09-30 23:04:00,67.6,63.3,29.64,North,350,0.0,0.0,86,0.00,FEW,,0.92,0.0,WeatherDisplay:10.37,2013-09-30 21:04:00,
2013-09-30 23:07:00,67.6,63.3,29.64,North,350,0.0,0.0,86,0.00,FEW,,0.92,0.0,WeatherDisplay:10.37,2013-09-30 21:07:00,
2013-09-30 23:08:00,67.6,63.3,29.64,North,350,0.0,0.0,86,0.00,FEW,,0.92,0.0,WeatherDisplay:10.37,2013-09-30 21:08:00,
2013-09-30 23:09:00,67.6,63.3,29.64,North,350,0.0,0.0,86,0.00,FEW,,0.92,0.0,WeatherDisplay:10.37,2013-09-30 21:09:00,
2013-09-30 23:12:00,67.5,63.5,29.64,North,350,0.0,0.0,87,0.00,FEW,,0.92,0.0,WeatherDisplay:10.37,2013-09-30 21:12:00,
2013-09-30 23:13:00,67.5,63.5,29.64,North,350,0.0,0.0,87,0.00,FEW,,0.92,0.0,WeatherDisplay:10.37,2013-09-30 21:13:00,
2013-09-30 23:14:00,67.5,63.5,29.64,North,350,0.0,0.0,87,0.00,FEW,,0.92,0.0,WeatherDisplay:10.37,2013-09-30 21:14:00,
2013-09-30 23:17:00,67.5,63.5,29.64,ENE,71,0.0,0.0,87,0.00,FEW,,0.92,0.0,WeatherDisplay:10.37,2013-09-30 21:17:00,
2013-09-30 23:18:00,67.5,63.5,29.64,ENE,71,0.0,0.0,87,0.00,FEW,,0.92,0.0,WeatherDisplay:10.37,2013-09-30 21:18:00,
2013-09-30 23:19:00,67.5,63.5,29.64,ENE,71,0.0,0.0,87,0.00,FEW,,0.92,0.0,WeatherDisplay:10.37,2013-09-30 21:19:00,
2013-09-30 23:22:00,67.5,63.5,29.64,ENE,71,0.0,0.0,87,0.00,FEW,,0.92,0.0,WeatherDisplay:10.37,2013-09-30 21:22:00,
2013-09-30 23:23:00,67.5,63.5,29.64,ENE,71,0.0,0.0,87,0.00,FEW,,0.92,0.0,WeatherDisplay:10.37,2013-09-30 21:23:00,
2013-09-30 23:24:00,67.5,63.5,29.64,ENE,71,0.0,0.0,87,0.00,FEW,,0.92,0.0,WeatherDisplay:10.37,2013-09-30 21:24:00,
2013-09-30 23:25:00,67.5,63.5,29.64,ENE,71,0.0,0.0,87,0.00,FEW,,0.92,0.0,WeatherDisplay:10.37,2013-09-30 21:25:00,
2013-09-30 23:27:00,67.5,63.5,29.64,ENE,71,0.0,0.0,87,0.00,FEW,,0.92,0.0,WeatherDisplay:10.37,2013-09-30 21:27:00,
2013-09-30 23:28:00,67.4,63.4,29.64,ENE,71,0.0,0.0,87,0.00,FEW,,0.92,0.0,WeatherDisplay:10.37,2013-09-30 21:28:00,
2013-09-30 23:30:00,67.4,63.4,29.64,ENE,71,0.0,0.0,87,0.00,FEW,,0.92,0.0,WeatherDisplay:10.37,2013-09-30 21:30:00,
2013-09-30 23:31:00,67.4,63.4,29.64,ENE,66,0.0,0.0,87,0.00,FEW,,0.92,0.0,WeatherDisplay:10.37,2013-09-30 21:31:00,
2013-09-30 23:32:00,67.4,63.4,29.64,ENE,66,0.0,0.0,87,0.00,FEW,,0.92,0.0,WeatherDisplay:10.37,2013-09-30 21:32:00,
2013-09-30 23:34:00,67.3,63.3,29.64,ENE,66,0.0,0.0,87,0.00,FEW,,0.92,0.0,WeatherDisplay:10.37,2013-09-30 21:34:00,
2013-09-30 23:35:00,67.3,63.3,29.64,ENE,66,0.0,0.0,87,0.00,FEW,,0.92,0.0,WeatherDisplay:10.37,2013-09-30 21:35:00,
2013-09-30 23:36:00,67.3,63.3,29.64,ENE,66,0.0,0.0,87,0.00,FEW,,0.92,0.0,WeatherDisplay:10.37,2013-09-30 21:36:00,
2013-09-30 23:37:00,67.3,63.3,29.64,ENE,66,0.0,0.0,87,0.00,FEW,,0.92,0.0,WeatherDisplay:10.37,2013-09-30 21:37:00,
2013-09-30 23:39:00,67.2,63.2,29.64,ENE,66,0.0,0.0,87,0.00,FEW,,0.92,0.0,WeatherDisplay:10.37,2013-09-30 21:39:00,
2013-09-30 23:40:00,67.2,63.2,29.64,ENE,66,0.0,0.0,87,0.00,FEW,,0.92,0.0,WeatherDisplay:10.37,2013-09-30 21:40:00,
2013-09-30 23:42:00,67.1,63.1,29.64,ENE,66,0.0,0.0,87,0.00,FEW,,0.92,0.0,WeatherDisplay:10.37,2013-09-30 21:42:00,
2013-09-30 23:43:00,67.1,63.1,29.64,ENE,66,0.0,0.0,87,0.00,FEW,,0.92,0.0,WeatherDisplay:10.37,2013-09-30 21:43:00,
2013-09-30 23:45:00,67.0,63.0,29.64,ENE,66,0.0,0.0,87,0.00,FEW,,0.92,0.0,WeatherDisplay:10.37,2013-09-30 21:45:00,
2013-09-30 23:46:00,67.0,63.0,29.64,ENE,66,0.0,0.0,87,0.00,FEW,,0.92,0.0,WeatherDisplay:10.37,2013-09-30 21:46:00,
2013-09-30 23:47:00,67.0,63.0,29.64,ENE,57,0.0,0.0,87,0.00,FEW,,0.92,0.0,WeatherDisplay:10.37,2013-09-30 21:47:00,
2013-09-30 23:48:00,67.0,63.0,29.64,ENE,57,3.5,3.5,87,0.00,FEW,,0.92,0.0,WeatherDisplay:10.37,2013-09-30 21:48:00,
2013-09-30 23:50:00,66.9,62.9,29.64,ENE,67,2.3,2.3,87,0.00,FEW,,0.92,0.0,WeatherDisplay:10.37,2013-09-30 21:50:00,
2013-09-30 23:51:00,66.9,62.9,29.64,ENE,67,2.3,2.3,87,0.00,FEW,,0.92,0.0,WeatherDisplay:10.37,2013-09-30 21:51:00,
2013-09-30 23:52:00,66.9,62.9,29.64,ENE,67,1.2,0.0,87,0.00,FEW,,0.92,0.0,WeatherDisplay:10.37,2013-09-30 21:52:00,
2013-09-30 23:53:00,66.9,62.9,29.64,ENE,67,0.0,0.0,87,0.00,FEW,,0.92,0.0,WeatherDisplay:10.37,2013-09-30 21:53:00,
2013-09-30 23:56:00,66.9,62.9,29.64,ENE,67,0.0,0.0,87,0.00,FEW,,0.92,0.0,WeatherDisplay:10.37,2013-09-30 21:56:00,
2013-09-30 23:57:00,66.9,62.9,29.64,ENE,67,0.0,0.0,87,0.00,FEW,,0.92,0.0,WeatherDisplay:10.37,2013-09-30 21:57:00,
2013-09-30 23:58:00,66.9,62.9,29.64,ENE,67,0.0,0.1,87,0.00,FEW,,0.92,0.0,WeatherDisplay:10.37,2013-09-30 21:58:00,
2013-09-30 23:59:00,66.8,62.8,29.64,ENE,67,1.2,0.0,87,0.00,FEW,,0.92,0.0,WeatherDisplay:10.37,2013-09-30 21:59:00,